W4HSV Weather Reports


Display with metric or nautical units.
time (UTC)temp
F
wind
direction
speed
MPH
gust
MPH
rain 1hr
in
rain 24hr
in
rain mn
in
humidity
%
barometer
mb
20260901201923 96 187 3.0 8.0 0.00 0.00 0.00 47 1017.5
20260901201830 96 149 4.0 8.0 0.00 0.00 0.00 47 1017.6
20260901201805 96 115 4.0 8.0 0.00 0.00 0.00 47 1017.6
20260901201517 96 182 4.0 8.0 0.00 0.00 0.00 46 1017.5
20260901201424 96 167 4.0 8.0 0.00 0.00 0.00 46 1017.5
20260901201331 96 186 4.0 8.0 0.00 0.00 0.00 45 1017.5
20260901201218 96 214 6.0 8.0 0.00 0.00 0.00 45 1017.5
20260901201129 96 121 5.0 8.0 0.00 0.00 0.00 47 1017.6
20260901201016 96 169 4.0 8.0 0.00 0.00 0.00 44 1017.5
20260901200922 96 190 5.0 8.0 0.00 0.00 0.00 45 1017.5
20260901200831 96 158 4.0 8.0 0.00 0.00 0.00 44 1017.6
20260901200738 96 202 3.0 8.0 0.00 0.00 0.00 45 1017.6
20260901200623 96 200 4.0 8.0 0.00 0.00 0.00 45 1017.6
20260901200551 96 158 4.0 8.0 0.00 0.00 0.00 47 1017.5
20260901200422 96 126 3.0 7.0 0.00 0.00 0.00 47 1017.6
20260901200329 96 150 3.0 7.0 0.00 0.00 0.00 45 1017.5
20260901200259 96 167 3.0 5.0 0.00 0.00 0.00 45 1017.5
20260901200032 96 28 3.0 5.0 0.00 0.00 0.00 47 1017.6
20260901195944 97 47 2.0 5.0 0.00 0.00 0.00 46 1017.6
20260901195831 97 40 1.0 5.0 0.00 0.00 0.00 46 1017.7
20260901195717 97 88 1.0 5.0 0.00 0.00 0.00 46 1017.7
20260901195623 97 88 1.0 5.0 0.00 0.00 0.00 47 1017.7
20260901195529 97 360 2.0 5.0 0.00 0.00 0.00 49 1017.7
20260901195417 96 31 1.0 5.0 0.00 0.00 0.00 47 1017.7
20260901195329 96 329 1.0 6.0 0.00 0.00 0.00 47 1017.7
20260901195235 96 315 1.0 8.0 0.00 0.00 0.00 48 1017.7
20260901195122 96 226 1.0 8.0 0.00 0.00 0.00 47 1017.7
20260901195030 96 267 2.0 8.0 0.00 0.00 0.00 48 1017.8
20260901194939 96 277 1.0 8.0 0.00 0.00 0.00 47 1017.7
20260901194905 96 35 2.0 8.0 0.00 0.00 0.00 47 1017.8
20260901194818 96 350 3.0 8.0 0.00 0.00 0.00 50 1017.8
20260901194530 96 311 4.0 8.0 0.00 0.00 0.00 50 1017.8
20260901194417 96 329 5.0 8.0 0.00 0.00 0.00 50 1017.9
20260901194323 96 309 3.0 6.0 0.00 0.00 0.00 49 1017.9
20260901194250 95 5 2.0 6.0 0.00 0.00 0.00 48 1017.9
20260901194121 95 338 2.0 5.0 0.00 0.00 0.00 47 1017.9
20260901194048 95 338 3.0 5.0 0.00 0.00 0.00 47 1017.9
20260901193935 95 23 4.0 5.0 0.00 0.00 0.00 48 1017.9
20260901193841 95 295 3.0 6.0 0.00 0.00 0.00 48 1017.9
20260901193727 95 296 2.0 4.0 0.00 0.00 0.00 48 1017.9
20260901193634 95 203 2.0 4.0 0.00 0.00 0.00 48 1018.0
20260901193524 95 317 2.0 5.0 0.00 0.00 0.00 49 1017.9
20260901193430 95 286 2.0 7.0 0.00 0.00 0.00 51 1017.9
20260901193357 95 274 2.0 8.0 0.00 0.00 0.00 50 1017.9
20260901193306 95 277 1.0 11.0 0.00 0.00 0.00 50 1017.9
20260901193019 95 107 1.0 11.0 0.00 0.00 0.00 50 1018.0
20260901192931 95 140 1.0 11.0 0.00 0.00 0.00 50 1018.1
20260901192817 95 162 3.0 11.0 0.00 0.00 0.00 49 1018.1
20260901192724 95 127 5.0 11.0 0.00 0.00 0.00 48 1018.1
20260901192632 95 128 6.0 11.0 0.00 0.00 0.00 50 1018.1
20260901192519 95 117 8.0 11.0 0.00 0.00 0.00 49 1018.1
20260901192426 95 110 9.0 11.0 0.00 0.00 0.00 50 1018.0
20260901192318 95 117 7.0 11.0 0.00 0.00 0.00 50 1018.1
20260901192223 96 133 7.0 11.0 0.00 0.00 0.00 49 1018.0
20260901192131 96 171 7.0 11.0 0.00 0.00 0.00 50 1018.1
20260901192017 96 116 4.0 11.0 0.00 0.00 0.00 51 1018.0
20260901191924 95 112 2.0 10.0 0.00 0.00 0.00 50 1018.1
20260901191836 95 105 2.0 10.0 0.00 0.00 0.00 48 1018.1
20260901191805 95 132 1.0 10.0 0.00 0.00 0.00 49 1018.1
20260901191516 95 355 3.0 10.0 0.00 0.00 0.00 50 1018.1
20260901191424 95 26 3.0 10.0 0.00 0.00 0.00 50 1018.1
20260901191330 95 338 3.0 10.0 0.00 0.00 0.00 48 1018.1
20260901191222 95 346 4.0 10.0 0.00 0.00 0.00 48 1018.2
20260901191148 95 334 5.0 10.0 0.00 0.00 0.00 50 1018.2
20260901191033 95 355 4.0 7.0 0.00 0.00 0.00 49 1018.2
20260901190942 95 83 4.0 7.0 0.00 0.00 0.00 49 1018.3
20260901190828 95 5 3.0 7.0 0.00 0.00 0.00 49 1018.3
20260901190734 95 44 2.0 7.0 0.00 0.00 0.00 49 1018.3
20260901190626 95 148 3.0 7.0 0.00 0.00 0.00 49 1018.2
20260901190533 95 56 4.0 7.0 0.00 0.00 0.00 50 1018.4
20260901190420 95 75 3.0 8.0 0.00 0.00 0.00 50 1018.3
20260901190347 95 61 2.0 8.0 0.00 0.00 0.00 50 1018.3
20260901190317 95 105 2.0 8.0 0.00 0.00 0.00 49 1018.3
20260901190054 95 124 3.0 8.0 0.00 0.00 0.00 47 1018.4
20260901185919 95 132 3.0 8.0 0.00 0.00 0.00 49 1018.4
20260901185826 95 39 3.0 8.0 0.00 0.00 0.00 49 1018.4
20260901185733 95 69 5.0 8.0 0.00 0.00 0.00 52 1018.4
20260901185619 95 138 3.0 8.0 0.00 0.00 0.00 50 1018.4
20260901185526 95 148 2.0 8.0 0.00 0.00 0.00 49 1018.3
20260901185417 95 103 4.0 8.0 0.00 0.00 0.00 52 1018.4
20260901185323 95 112 5.0 8.0 0.00 0.00 0.00 48 1018.4
20260901185230 95 131 4.0 8.0 0.00 0.00 0.00 47 1018.5
20260901185117 95 103 4.0 7.0 0.00 0.00 0.00 49 1018.5
20260901185025 95 87 3.0 7.0 0.00 0.00 0.00 50 1018.4
20260901184952 95 44 3.0 7.0 0.00 0.00 0.00 49 1018.5
20260901184842 95 76 3.0 7.0 0.00 0.00 0.00 48 1018.5
20260901184750 95 70 3.0 8.0 0.00 0.00 0.00 51 1018.5
20260901184522 95 177 3.0 8.0 0.00 0.00 0.00 51 1018.5
20260901184429 95 113 4.0 8.0 0.00 0.00 0.00 47 1018.5
20260901184320 95 186 4.0 8.0 0.00 0.00 0.00 50 1018.5
20260901184227 95 161 4.0 8.0 0.00 0.00 0.00 52 1018.6
20260901184133 95 94 3.0 7.0 0.00 0.00 0.00 49 1018.6
20260901184020 95 142 3.0 7.0 0.00 0.00 0.00 52 1018.6
20260901183949 95 163 3.0 7.0 0.00 0.00 0.00 52 1018.6
20260901183833 94 130 2.0 7.0 0.00 0.00 0.00 51 1018.6
20260901183726 94 159 1.0 4.0 0.00 0.00 0.00 50 1018.6
20260901183634 94 258 1.0 4.0 0.00 0.00 0.00 50 1018.6
20260901183520 94 355 2.0 4.0 0.00 0.00 0.00 50 1018.6
20260901183429 94 55 1.0 4.0 0.00 0.00 0.00 51 1018.7
20260901183336 94 80 1.0 4.0 0.00 0.00 0.00 52 1018.7
20260901183309 94 80 1.0 4.0 0.00 0.00 0.00 50 1018.7
20260901183023 94 158 1.0 6.0 0.00 0.00 0.00 50 1018.7
20260901182930 94 158 2.0 6.0 0.00 0.00 0.00 49 1018.7
20260901182816 94 118 2.0 6.0 0.00 0.00 0.00 51 1018.8
20260901182722 94 94 1.0 6.0 0.00 0.00 0.00 49 1018.7
20260901182648 94 132 1.0 6.0 0.00 0.00 0.00 50 1018.8
20260901182539 94 84 2.0 6.0 0.00 0.00 0.00 49 1018.8
20260901182425 94 61 2.0 6.0 0.00 0.00 0.00 49 1018.8
20260901182353 94 45 2.0 6.0 0.00 0.00 0.00 51 1018.8
20260901182219 94 44 3.0 6.0 0.00 0.00 0.00 51 1018.9
20260901182126 94 30 1.0 6.0 0.00 0.00 0.00 53 1018.9
20260901182053 94 122 1.0 6.0 0.00 0.00 0.00 50 1018.9
20260901181923 94 128 2.0 6.0 0.00 0.00 0.00 52 1018.9
20260901181831 94 140 2.0 8.0 0.00 0.00 0.00 51 1018.9
20260901181802 94 139 3.0 8.0 0.00 0.00 0.00 51 1018.9
20260901181535 94 88 3.0 8.0 0.00 0.00 0.00 52 1018.9
20260901181424 94 80 3.0 8.0 0.00 0.00 0.00 53 1018.9
20260901181334 94 43 4.0 8.0 0.00 0.00 0.00 51 1018.9
20260901181220 94 16 4.0 8.0 0.00 0.00 0.00 52 1019.0
20260901181127 94 30 4.0 8.0 0.00 0.00 0.00 52 1018.9
20260901181035 94 38 3.0 8.0 0.00 0.00 0.00 51 1018.9
20260901180923 94 84 3.0 7.0 0.00 0.00 0.00 52 1018.9
20260901180849 94 132 2.0 7.0 0.00 0.00 0.00 54 1018.9
20260901180718 94 108 1.0 6.0 0.00 0.00 0.00 50 1019.0
20260901180626 93 222 3.0 6.0 0.00 0.00 0.00 50 1019.0
20260901180533 93 205 3.0 8.0 0.00 0.00 0.00 50 1019.1
20260901180419 93 171 3.0 8.0 0.00 0.00 0.00 52 1018.9
20260901180326 93 157 3.0 8.0 0.00 0.00 0.00 50 1019.0
20260901180301 93 89 3.0 8.0 0.00 0.00 0.00 50 1019.0
20260901180034 93 148 3.0 8.0 0.00 0.00 0.00 51 1019.1
20260901175922 93 188 4.0 8.0 0.00 0.00 0.00 52 1019.1
20260901175829 94 120 5.0 8.0 0.00 0.00 0.00 53 1019.1
20260901175735 94 150 5.0 8.0 0.00 0.00 0.00 51 1019.1
20260901175627 94 150 4.0 7.0 0.00 0.00 0.00 52 1019.0
20260901175532 94 147 3.0 7.0 0.00 0.00 0.00 52 1019.0
20260901175419 94 137 3.0 7.0 0.00 0.00 0.00 52 1019.1
20260901175326 94 144 3.0 6.0 0.00 0.00 0.00 55 1019.0
20260901175232 94 157 2.0 6.0 0.00 0.00 0.00 52 1019.0
20260901175124 94 22 3.0 6.0 0.00 0.00 0.00 51 1019.1
20260901175032 94 72 4.0 6.0 0.00 0.00 0.00 53 1019.1
20260901174919 94 49 3.0 6.0 0.00 0.00 0.00 52 1019.1
20260901174846 94 65 3.0 6.0 0.00 0.00 0.00 52 1019.2
20260901174756 94 113 3.0 6.0 0.00 0.00 0.00 52 1019.2
20260901174534 94 92 4.0 7.0 0.00 0.00 0.00 55 1019.1
20260901174421 94 36 4.0 7.0 0.00 0.00 0.00 54 1019.2
20260901174348 94 136 4.0 6.0 0.00 0.00 0.00 56 1019.2
20260901174234 94 138 4.0 6.0 0.00 0.00 0.00 56 1019.2
20260901174121 94 148 2.0 6.0 0.00 0.00 0.00 55 1019.2
20260901174028 94 109 1.0 6.0 0.00 0.00 0.00 53 1019.2
20260901173918 94 28 2.0 6.0 0.00 0.00 0.00 56 1019.2
20260901173824 94 23 2.0 6.0 0.00 0.00 0.00 57 1019.3
20260901173731 94 39 2.0 5.0 0.00 0.00 0.00 56 1019.2
20260901173617 94 58 3.0 5.0 0.00 0.00 0.00 59 1019.2
20260901173546 94 19 2.0 5.0 0.00 0.00 0.00 57 1019.3
20260901173432 94 143 2.0 5.0 0.00 0.00 0.00 55 1019.2
20260901173318 93 355 2.0 5.0 0.00 0.00 0.00 54 1019.3
20260901173254 93 355 2.0 5.0 0.00 0.00 0.00 54 1019.3
20260901173026 93 5 0.0 3.0 0.00 0.00 0.00 56 1019.2
20260901172954 93 5 1.0 3.0 0.00 0.00 0.00 55 1019.2
20260901172819 93 5 1.0 4.0 0.00 0.00 0.00 55 1019.3
20260901172726 93 302 1.0 4.0 0.00 0.00 0.00 56 1019.2
20260901172616 93 237 2.0 4.0 0.00 0.00 0.00 57 1019.2
20260901172523 93 257 2.0 4.0 0.00 0.00 0.00 56 1019.3
20260901172430 93 271 2.0 4.0 0.00 0.00 0.00 56 1019.3
20260901172316 93 281 2.0 4.0 0.00 0.00 0.00 55 1019.4
20260901172222 93 281 2.0 4.0 0.00 0.00 0.00 56 1019.3
20260901172134 93 275 2.0 5.0 0.00 0.00 0.00 56 1019.4
20260901172022 93 244 2.0 5.0 0.00 0.00 0.00 57 1019.3
20260901171948 92 194 2.0 5.0 0.00 0.00 0.00 59 1019.4
20260901171836 92 186 2.0 5.0 0.00 0.00 0.00 57 1019.4
20260901171806 92 196 2.0 5.0 0.00 0.00 0.00 57 1019.4
20260901171522 92 5 3.0 5.0 0.00 0.00 0.00 59 1019.5
20260901171431 92 17 3.0 5.0 0.00 0.00 0.00 58 1019.4
20260901171317 92 345 3.0 5.0 0.00 0.00 0.00 58 1019.5
20260901171243 91 340 3.0 5.0 0.00 0.00 0.00 58 1019.5
20260901171130 91 18 3.0 5.0 0.00 0.00 0.00 59 1019.5
20260901171016 91 5 4.0 5.0 0.00 0.00 0.00 60 1019.5
20260901170929 91 17 3.0 5.0 0.00 0.00 0.00 60 1019.5
20260901170856 91 11 3.0 5.0 0.00 0.00 0.00 58 1019.5
20260901170742 91 355 3.0 5.0 0.00 0.00 0.00 59 1019.6
20260901170626 91 336 3.0 5.0 0.00 0.00 0.00 59 1019.5
20260901170555 91 329 3.0 5.0 0.00 0.00 0.00 58 1019.5
20260901170420 91 317 3.0 5.0 0.00 0.00 0.00 58 1019.6
20260901170348 91 321 3.0 5.0 0.00 0.00 0.00 59 1019.6
20260901170301 91 333 3.0 5.0 0.00 0.00 0.00 59 1019.6
20260901170035 91 346 3.0 5.0 0.00 0.00 0.00 59 1019.5
20260901165922 91 355 3.0 5.0 0.00 0.00 0.00 58 1019.6
20260901165851 91 360 3.0 5.0 0.00 0.00 0.00 59 1019.7
20260901165716 91 348 3.0 5.0 0.00 0.00 0.00 59 1019.6
20260901165627 91 331 3.0 5.0 0.00 0.00 0.00 59 1019.6
20260901165534 91 355 2.0 5.0 0.00 0.00 0.00 58 1019.6
20260901165420 91 297 2.0 5.0 0.00 0.00 0.00 58 1019.6
20260901165346 91 48 3.0 5.0 0.00 0.00 0.00 57 1019.7
20260901165231 91 15 2.0 5.0 0.00 0.00 0.00 58 1019.7
20260901165117 91 355 1.0 5.0 0.00 0.00 0.00 56 1019.6
20260901165028 92 192 1.0 4.0 0.00 0.00 0.00 55 1019.7
20260901164935 92 192 1.0 4.0 0.00 0.00 0.00 55 1019.7
20260901164821 92 192 2.0 6.0 0.00 0.00 0.00 55 1019.8
20260901164752 92 192 2.0 6.0 0.00 0.00 0.00 55 1019.8
20260901164529 92 166 3.0 6.0 0.00 0.00 0.00 53 1019.7
20260901164435 92 219 3.0 6.0 0.00 0.00 0.00 53 1019.7
20260901164321 92 254 2.0 6.0 0.00 0.00 0.00 53 1019.7
20260901164228 92 239 2.0 6.0 0.00 0.00 0.00 53 1019.6
20260901164135 93 229 2.0 6.0 0.00 0.00 0.00 53 1019.6
20260901164021 93 204 2.0 6.0 0.00 0.00 0.00 57 1019.6
20260901163954 93 285 2.0 7.0 0.00 0.00 0.00 55 1019.6
20260901163819 93 241 3.0 7.0 0.00 0.00 0.00 56 1019.7
20260901163726 93 251 3.0 7.0 0.00 0.00 0.00 55 1019.6
20260901163633 93 229 3.0 7.0 0.00 0.00 0.00 55 1019.6
20260901163518 93 216 3.0 7.0 0.00 0.00 0.00 55 1019.6
20260901163427 93 223 3.0 7.0 0.00 0.00 0.00 57 1019.6
20260901163338 94 214 4.0 7.0 0.00 0.00 0.00 57 1019.6
20260901163308 94 228 4.0 7.0 0.00 0.00 0.00 57 1019.6
20260901163021 94 265 4.0 7.0 0.00 0.00 0.00 58 1019.6
20260901162929 93 277 3.0 6.0 0.00 0.00 0.00 57 1019.6
20260901162840 93 283 2.0 6.0 0.00 0.00 0.00 59 1019.6
20260901162726 93 324 2.0 6.0 0.00 0.00 0.00 58 1019.8
20260901162632 93 323 2.0 6.0 0.00 0.00 0.00 59 1019.8
20260901162517 93 333 2.0 6.0 0.00 0.00 0.00 58 1019.8
20260901162443 93 86 3.0 6.0 0.00 0.00 0.00 58 1019.7
20260901162329 93 35 3.0 6.0 0.00 0.00 0.00 58 1019.7
20260901162217 93 42 2.0 4.0 0.00 0.00 0.00 58 1019.8
20260901162130 93 23 3.0 4.0 0.00 0.00 0.00 58 1019.8
20260901162018 93 28 3.0 4.0 0.00 0.00 0.00 59 1019.9
20260901161927 93 9 2.0 4.0 0.00 0.00 0.00 59 1019.9
20260901161854 93 320 2.0 4.0 0.00 0.00 0.00 59 1019.9
20260901161825 93 304 1.0 4.0 0.00 0.00 0.00 59 1019.9
20260901161521 92 326 1.0 4.0 0.00 0.00 0.00 57 1019.9
20260901161429 92 326 1.0 4.0 0.00 0.00 0.00 59 1019.9
20260901161337 92 325 2.0 4.0 0.00 0.00 0.00 58 1019.9
20260901161223 92 325 2.0 5.0 0.00 0.00 0.00 58 1019.8
20260901161129 92 250 1.0 5.0 0.00 0.00 0.00 60 1019.9
20260901161055 92 279 1.0 5.0 0.00 0.00 0.00 59 1019.9
20260901160924 92 146 1.0 5.0 0.00 0.00 0.00 58 1019.9
20260901160831 92 269 1.0 5.0 0.00 0.00 0.00 60 1019.9
20260901160719 92 271 2.0 5.0 0.00 0.00 0.00 60 1019.9
20260901160624 92 263 3.0 5.0 0.00 0.00 0.00 61 1019.9
20260901160533 92 232 3.0 5.0 0.00 0.00 0.00 61 1019.9
20260901160440 92 262 3.0 5.0 0.00 0.00 0.00 61 1019.9
20260901160411 92 257 3.0 6.0 0.00 0.00 0.00 61 1019.9
20260901160320 92 314 2.0 4.0 0.00 0.00 0.00 61 1019.9
20260901160052 92 348 3.0 4.0 0.00 0.00 0.00 62 1020.0
20260901155918 92 5 2.0 4.0 0.00 0.00 0.00 59 1020.0
20260901155844 92 355 1.0 4.0 0.00 0.00 0.00 61 1020.0
20260901155730 92 86 2.0 4.0 0.00 0.00 0.00 60 1020.0
20260901155622 92 115 2.0 4.0 0.00 0.00 0.00 59 1020.1
20260901155528 92 115 1.0 4.0 0.00 0.00 0.00 60 1020.1
20260901155434 92 148 1.0 4.0 0.00 0.00 0.00 60 1020.1
20260901155321 92 236 0.0 4.0 0.00 0.00 0.00 60 1020.1
20260901155229 92 236 1.0 4.0 0.00 0.00 0.00 60 1020.1
20260901155120 92 236 1.0 4.0 0.00 0.00 0.00 60 1020.1
20260901155048 92 236 2.0 4.0 0.00 0.00 0.00 62 1020.1
20260901154933 91 281 2.0 4.0 0.00 0.00 0.00 63 1020.1
20260901154900 91 236 2.0 4.0 0.00 0.00 0.00 61 1020.1
20260901154830 91 225 1.0 4.0 0.00 0.00 0.00 62 1020.2
20260901154521 91 303 2.0 4.0 0.00 0.00 0.00 61 1020.2
20260901154433 91 303 2.0 7.0 0.00 0.00 0.00 63 1020.1
20260901154319 91 211 2.0 7.0 0.00 0.00 0.00 63 1020.1
20260901154226 91 186 3.0 7.0 0.00 0.00 0.00 63 1020.2
20260901154132 91 223 2.0 7.0 0.00 0.00 0.00 62 1020.1
20260901154018 91 235 2.0 7.0 0.00 0.00 0.00 62 1020.2
20260901153929 91 173 2.0 7.0 0.00 0.00 0.00 61 1020.2
20260901153837 91 228 2.0 7.0 0.00 0.00 0.00 62 1020.2
20260901153743 91 223 2.0 7.0 0.00 0.00 0.00 61 1020.1
20260901153629 91 223 2.0 7.0 0.00 0.00 0.00 61 1020.2
20260901153535 91 236 3.0 7.0 0.00 0.00 0.00 61 1020.2
20260901153420 91 309 3.0 7.0 0.00 0.00 0.00 61 1020.2
20260901153327 91 270 3.0 7.0 0.00 0.00 0.00 62 1020.2
20260901153301 91 251 3.0 7.0 0.00 0.00 0.00 62 1020.2
20260901153033 91 242 3.0 7.0 0.00 0.00 0.00 62 1020.1
20260901152919 91 280 3.0 7.0 0.00 0.00 0.00 63 1020.1
20260901152825 91 179 4.0 7.0 0.00 0.00 0.00 62 1020.2
20260901152753 91 167 3.0 7.0 0.00 0.00 0.00 63 1020.2
20260901152620 91 155 3.0 4.0 0.00 0.00 0.00 64 1020.2
20260901152548 91 122 2.0 4.0 0.00 0.00 0.00 62 1020.2
20260901152454 91 130 2.0 4.0 0.00 0.00 0.00 62 1020.2
20260901152319 91 275 2.0 4.0 0.00 0.00 0.00 63 1020.2
20260901152225 91 302 2.0 4.0 0.00 0.00 0.00 64 1020.2
20260901152133 91 312 1.0 4.0 0.00 0.00 0.00 63 1020.2
20260901152018 91 314 2.0 4.0 0.00 0.00 0.00 63 1020.2
20260901151930 91 314 2.0 4.0 0.00 0.00 0.00 64 1020.1
20260901151859 91 293 2.0 4.0 0.00 0.00 0.00 63 1020.1
20260901151809 91 294 2.0 4.0 0.00 0.00 0.00 64 1020.1
20260901151521 90 338 2.0 4.0 0.00 0.00 0.00 64 1020.2
20260901151428 90 336 2.0 4.0 0.00 0.00 0.00 64 1020.2
20260901151339 90 296 1.0 4.0 0.00 0.00 0.00 63 1020.2
20260901151225 90 200 1.0 4.0 0.00 0.00 0.00 63 1020.2
20260901151153 90 200 2.0 4.0 0.00 0.00 0.00 64 1020.2
20260901151038 90 180 2.0 8.0 0.00 0.00 0.00 64 1020.2
20260901150923 90 220 1.0 8.0 0.00 0.00 0.00 64 1020.2
20260901150830 90 227 1.0 8.0 0.00 0.00 0.00 64 1020.3
20260901150721 90 227 2.0 8.0 0.00 0.00 0.00 64 1020.3
20260901150628 90 281 2.0 8.0 0.00 0.00 0.00 63 1020.2
20260901150535 90 209 2.0 8.0 0.00 0.00 0.00 65 1020.2
20260901150422 90 209 4.0 8.0 0.00 0.00 0.00 64 1020.1
20260901150329 90 264 4.0 8.0 0.00 0.00 0.00 65 1020.0
20260901150303 90 232 4.0 9.0 0.00 0.00 0.00 65 1020.0
20260901150035 90 142 2.0 5.0 0.00 0.00 0.00 65 1020.1
20260901145923 90 325 1.0 5.0 0.00 0.00 0.00 64 1020.1
20260901145830 90 224 1.0 5.0 0.00 0.00 0.00 63 1020.1
20260901145717 90 255 1.0 5.0 0.00 0.00 0.00 63 1020.1
20260901145628 90 317 2.0 5.0 0.00 0.00 0.00 65 1020.1
20260901145516 90 188 3.0 5.0 0.00 0.00 0.00 63 1020.1
20260901145444 90 211 3.0 5.0 0.00 0.00 0.00 64 1020.0
20260901145329 90 215 2.0 5.0 0.00 0.00 0.00 65 1020.1
20260901145217 89 161 1.0 4.0 0.00 0.00 0.00 64 1020.1
20260901145144 89 207 1.0 4.0 0.00 0.00 0.00 65 1020.1
20260901145049 89 214 2.0 7.0 0.00 0.00 0.00 66 1020.1
20260901142035 88 22 2.0 4.0 0.00 0.00 0.00 69 1020.2
20260901141942 88 5 2.0 4.0 0.00 0.00 0.00 68 1020.1
20260901141912 88 17 2.0 4.0 0.00 0.00 0.00 68 1020.1
20260901141623 87 119 2.0 4.0 0.00 0.00 0.00 69 1020.3
20260901141533 87 120 2.0 4.0 0.00 0.00 0.00 69 1020.3
20260901141439 87 44 2.0 4.0 0.00 0.00 0.00 69 1020.3
20260901141325 87 76 2.0 4.0 0.00 0.00 0.00 71 1020.3
20260901141232 87 65 2.0 4.0 0.00 0.00 0.00 70 1020.3
20260901141139 87 78 2.0 3.0 0.00 0.00 0.00 71 1020.3
20260901141029 87 110 1.0 3.0 0.00 0.00 0.00 71 1020.3
20260901140936 87 61 0.0 3.0 0.00 0.00 0.00 71 1020.2
20260901140823 87 91 1.0 3.0 0.00 0.00 0.00 71 1020.2
20260901140731 87 26 1.0 3.0 0.00 0.00 0.00 71 1020.2
20260901140638 87 33 1.0 3.0 0.00 0.00 0.00 72 1020.2
20260901140525 86 33 1.0 3.0 0.00 0.00 0.00 71 1020.3
20260901140437 86 59 1.0 3.0 0.00 0.00 0.00 72 1020.2
20260901140406 86 59 0.0 3.0 0.00 0.00 0.00 71 1020.2
20260901140139 86 76 1.0 3.0 0.00 0.00 0.00 72 1020.2
20260901140045 86 76 1.0 3.0 0.00 0.00 0.00 72 1020.1
20260901135931 86 76 2.0 3.0 0.00 0.00 0.00 73 1020.1
20260901135821 86 137 1.0 3.0 0.00 0.00 0.00 74 1020.1
20260901135727 86 92 1.0 3.0 0.00 0.00 0.00 73 1020.1
20260901135635 86 149 1.0 4.0 0.00 0.00 0.00 72 1020.1
20260901135521 85 121 0.0 4.0 0.00 0.00 0.00 72 1020.1
20260901135427 85 136 0.0 4.0 0.00 0.00 0.00 72 1020.1
20260901135333 85 136 0.0 4.0 0.00 0.00 0.00 72 1020.1
20260901135224 85 136 1.0 4.0 0.00 0.00 0.00 73 1020.1
20260901135131 85 136 1.0 4.0 0.00 0.00 0.00 73 1020.0
20260901135038 85 93 2.0 4.0 0.00 0.00 0.00 73 1020.1
20260901134924 85 128 1.0 4.0 0.00 0.00 0.00 73 1020.0
20260901134858 85 94 1.0 4.0 0.00 0.00 0.00 73 1020.0
20260901134632 85 24 1.0 3.0 0.00 0.00 0.00 75 1020.1
20260901134539 85 60 1.0 3.0 0.00 0.00 0.00 75 1019.9
20260901134426 85 38 1.0 3.0 0.00 0.00 0.00 74 1019.9
20260901134332 85 38 1.0 3.0 0.00 0.00 0.00 75 1019.8
20260901134224 84 37 2.0 3.0 0.00 0.00 0.00 75 1019.9
20260901134130 84 50 2.0 3.0 0.00 0.00 0.00 74 1019.9
20260901134059 84 58 1.0 3.0 0.00 0.00 0.00 74 1019.9
20260901133927 84 59 0.0 3.0 0.00 0.00 0.00 74 1019.9
20260901133833 84 109 0.0 3.0 0.00 0.00 0.00 74 1019.9
20260901133721 84 109 1.0 3.0 0.00 0.00 0.00 74 1019.9
20260901133627 84 109 2.0 3.0 0.00 0.00 0.00 74 1019.8
20260901133538 84 109 2.0 3.0 0.00 0.00 0.00 75 1019.9
20260901133425 84 107 1.0 3.0 0.00 0.00 0.00 75 1019.9
20260901133356 84 123 1.0 3.0 0.00 0.00 0.00 75 1019.9
20260901133130 84 105 1.0 3.0 0.00 0.00 0.00 74 1019.8
20260901133022 84 85 1.0 3.0 0.00 0.00 0.00 74 1019.8
20260901132929 84 85 1.0 3.0 0.00 0.00 0.00 75 1019.9
20260901132836 84 146 1.0 3.0 0.00 0.00 0.00 75 1019.9
20260901132725 84 129 1.0 3.0 0.00 0.00 0.00 75 1019.9
20260901132633 84 129 2.0 3.0 0.00 0.00 0.00 75 1019.9
20260901132524 84 111 2.0 3.0 0.00 0.00 0.00 75 1019.9
20260901132431 84 146 2.0 3.0 0.00 0.00 0.00 75 1019.9
20260901132340 84 151 1.0 3.0 0.00 0.00 0.00 75 1019.9
20260901132228 84 142 0.0 3.0 0.00 0.00 0.00 76 1020.0
20260901132155 84 86 1.0 3.0 0.00 0.00 0.00 76 1019.9
20260901132021 84 103 1.0 3.0 0.00 0.00 0.00 76 1019.9
20260901131949 84 103 1.0 3.0 0.00 0.00 0.00 76 1020.0
20260901131902 84 111 0.0 0.0 0.00 0.00 0.00 76 1020.0
20260901131635 83 86 0.0 0.0 0.00 0.00 0.00 77 1019.8
20260901131523 83 65 0.0 0.0 0.00 0.00 0.00 77 1019.9
20260901131431 83 65 0.0 0.0 0.00 0.00 0.00 77 1019.9
20260901131321 83 78 0.0 0.0 0.00 0.00 0.00 77 1019.9
20260901131249 83 78 0.0 0.0 0.00 0.00 0.00 78 1019.9
20260901131135 82 355 0.0 0.0 0.00 0.00 0.00 78 1019.9
20260901131020 82 355 0.0 0.0 0.00 0.00 0.00 78 1019.9
20260901130927 82 355 0.0 0.0 0.00 0.00 0.00 78 1019.9
20260901130835 82 355 0.0 0.0 0.00 0.00 0.00 79 1019.9
20260901130727 82 355 0.0 0.0 0.00 0.00 0.00 79 1019.8
20260901130635 81 355 0.0 0.0 0.00 0.00 0.00 80 1019.9
20260901130543 81 355 0.0 0.0 0.00 0.00 0.00 80 1019.8
20260901130448 81 355 0.0 0.0 0.00 0.00 0.00 81 1019.8
20260901130357 81 355 0.0 0.0 0.00 0.00 0.00 81 1019.8
20260901130131 80 355 0.0 0.0 0.00 0.00 0.00 81 1019.7
20260901130022 80 355 0.0 0.0 0.00 0.00 0.00 81 1019.8
20260901125928 80 355 0.0 0.0 0.00 0.00 0.00 81 1019.7
20260901125836 80 355 0.0 0.0 0.00 0.00 0.00 82 1019.7
20260901125724 80 355 0.0 0.0 0.00 0.00 0.00 82 1019.7
20260901125631 79 355 0.0 0.0 0.00 0.00 0.00 82 1019.8
20260901125523 79 355 0.0 0.0 0.00 0.00 0.00 83 1019.6
20260901125431 79 355 0.0 0.0 0.00 0.00 0.00 83 1019.7
20260901125359 79 355 0.0 0.0 0.00 0.00 0.00 82 1019.7
20260901125224 79 355 0.0 0.0 0.00 0.00 0.00 83 1019.7
20260901125131 79 355 0.0 0.0 0.00 0.00 0.00 83 1019.8
20260901125039 79 355 0.0 0.0 0.00 0.00 0.00 84 1019.7
20260901125007 78 355 0.0 0.0 0.00 0.00 0.00 84 1019.7
20260901124922 78 355 0.0 0.0 0.00 0.00 0.00 84 1019.7
20260901124633 78 355 0.0 0.0 0.00 0.00 0.00 85 1019.7
20260901124521 78 355 0.0 0.0 0.00 0.00 0.00 85 1019.8
20260901124429 78 355 0.0 0.0 0.00 0.00 0.00 85 1019.7
20260901124321 77 355 0.0 0.0 0.00 0.00 0.00 85 1019.7
20260901124228 77 355 0.0 0.0 0.00 0.00 0.00 86 1019.8
20260901124137 77 355 0.0 0.0 0.00 0.00 0.00 86 1019.8
20260901124044 77 355 0.0 0.0 0.00 0.00 0.00 87 1019.7
20260901123930 77 355 0.0 0.0 0.00 0.00 0.00 87 1019.7
20260901123838 76 355 0.0 0.0 0.00 0.00 0.00 87 1019.8
20260901123730 76 355 0.0 0.0 0.00 0.00 0.00 88 1019.8
20260901123636 76 355 0.0 0.0 0.00 0.00 0.00 88 1019.7
20260901123524 76 355 0.0 0.0 0.00 0.00 0.00 88 1019.8
20260901123452 76 355 0.0 2.0 0.00 0.00 0.00 88 1019.7
20260901123402 76 355 0.0 2.0 0.00 0.00 0.00 89 1019.7
20260901123140 76 355 0.0 2.0 0.00 0.00 0.00 89 1019.7
20260901123026 76 355 0.0 2.0 0.00 0.00 0.00 89 1019.7
20260901122955 75 355 0.0 2.0 0.00 0.00 0.00 89 1019.7
20260901122822 75 355 0.0 2.0 0.00 0.00 0.00 89 1019.7
20260901122730 75 355 1.0 3.0 0.00 0.00 0.00 89 1019.7
20260901122621 75 355 1.0 3.0 0.00 0.00 0.00 89 1019.7
20260901122549 75 355 1.0 3.0 0.00 0.00 0.00 89 1019.7
20260901122435 75 355 1.0 3.0 0.00 0.00 0.00 89 1019.7
20260901122322 75 355 1.0 3.0 0.00 0.00 0.00 89 1019.6
20260901122230 75 355 1.0 3.0 0.00 0.00 0.00 90 1019.7
20260901122138 74 355 1.0 3.0 0.00 0.00 0.00 90 1019.7
20260901122029 74 355 2.0 3.0 0.00 0.00 0.00 90 1019.6
20260901121906 74 355 2.0 3.0 0.00 0.00 0.00 90 1019.7
20260901121700 74 355 2.0 3.0 0.00 0.00 0.00 90 1019.6
20260901121526 74 355 2.0 3.0 0.00 0.00 0.00 91 1019.5
20260901121438 74 355 2.0 3.0 0.00 0.00 0.00 91 1019.6
20260901121326 73 355 2.0 3.0 0.00 0.00 0.00 91 1019.5
20260901121233 73 355 2.0 2.0 0.00 0.00 0.00 91 1019.5
20260901121140 73 355 1.0 2.0 0.00 0.00 0.00 91 1019.5
20260901121026 73 355 0.0 2.0 0.00 0.00 0.00 92 1019.5
20260901120953 73 355 0.0 2.0 0.00 0.00 0.00 92 1019.5
20260901120821 73 355 0.0 2.0 0.00 0.00 0.00 93 1019.5
20260901120728 73 355 1.0 3.0 0.00 0.00 0.00 93 1019.5
20260901120635 73 355 1.0 3.0 0.00 0.00 0.00 93 1019.5
20260901120523 73 355 1.0 3.0 0.00 0.00 0.00 92 1019.6
20260901120405 73 355 1.0 3.0 0.00 0.00 0.00 92 1019.6
20260901120138 72 355 2.0 3.0 0.00 0.00 0.00 92 1019.5
20260901120025 72 355 2.0 3.0 0.00 0.00 0.00 92 1019.4
20260901115933 72 355 2.0 3.0 0.00 0.00 0.00 92 1019.5
20260901115820 72 355 2.0 3.0 0.00 0.00 0.00 92 1019.5
20260901115752 72 355 2.0 3.0 0.00 0.00 0.00 92 1019.4
20260901115639 72 355 2.0 3.0 0.00 0.00 0.00 92 1019.4
20260901115527 72 355 1.0 3.0 0.00 0.00 0.00 92 1019.4
20260901115434 72 355 1.0 3.0 0.00 0.00 0.00 92 1019.4
20260901115321 72 355 2.0 3.0 0.00 0.00 0.00 92 1019.4
20260901115248 72 355 1.0 3.0 0.00 0.00 0.00 92 1019.4
20260901115139 72 355 1.0 2.0 0.00 0.00 0.00 92 1019.4
20260901115024 72 355 1.0 2.0 0.00 0.00 0.00 92 1019.3
20260901114932 72 355 1.0 3.0 0.00 0.00 0.00 93 1019.4
20260901114903 72 355 1.0 3.0 0.00 0.00 0.00 93 1019.4
20260901114657 72 355 1.0 3.0 0.00 0.00 0.00 93 1019.3
20260901114529 72 355 1.0 3.0 0.00 0.00 0.00 93 1019.3
20260901114457 72 355 1.0 3.0 0.00 0.00 0.00 93 1019.4
20260901114322 72 355 1.0 3.0 0.00 0.00 0.00 93 1019.3
20260901114230 72 355 1.0 3.0 0.00 0.00 0.00 93 1019.3
20260901114138 72 355 1.0 3.0 0.00 0.00 0.00 92 1019.3
20260901114025 72 355 2.0 3.0 0.00 0.00 0.00 92 1019.3
20260901113936 72 355 2.0 3.0 0.00 0.00 0.00 92 1019.2
20260901113823 72 355 1.0 3.0 0.00 0.00 0.00 92 1019.2
20260901113730 72 355 2.0 3.0 0.00 0.00 0.00 92 1019.2
20260901113638 72 355 2.0 3.0 0.00 0.00 0.00 92 1019.2
20260901113527 72 355 2.0 3.0 0.00 0.00 0.00 92 1019.3
20260901113410 72 355 2.0 3.0 0.00 0.00 0.00 92 1019.2
20260901113123 72 355 2.0 3.0 0.00 0.00 0.00 92 1019.2
20260901113030 72 355 2.0 3.0 0.00 0.00 0.00 92 1019.2
20260901112958 72 355 2.0 3.0 0.00 0.00 0.00 92 1019.2
20260901112828 72 355 2.0 3.0 0.00 0.00 0.00 92 1019.2
20260901112733 72 355 2.0 3.0 0.00 0.00 0.00 92 1019.2
20260901112622 72 355 2.0 3.0 0.00 0.00 0.00 92 1019.2
20260901112530 72 355 2.0 3.0 0.00 0.00 0.00 92 1019.2
20260901112437 72 355 2.0 3.0 0.00 0.00 0.00 92 1019.2
20260901112328 72 355 2.0 3.0 0.00 0.00 0.00 92 1019.2
20260901112236 72 355 2.0 3.0 0.00 0.00 0.00 92 1019.1
20260901112122 72 355 2.0 3.0 0.00 0.00 0.00 92 1019.1
20260901112029 72 355 2.0 3.0 0.00 0.00 0.00 92 1019.1
20260901111931 72 355 2.0 3.0 0.00 0.00 0.00 92 1019.1
20260901111622 72 355 2.0 4.0 0.00 0.00 0.00 92 1019.0
20260901111528 72 355 2.0 4.0 0.00 0.00 0.00 92 1019.1
20260901111455 72 355 2.0 4.0 0.00 0.00 0.00 92 1019.1
20260901111322 72 355 2.0 4.0 0.00 0.00 0.00 92 1019.1
20260901111229 72 355 2.0 4.0 0.00 0.00 0.00 92 1019.1
20260901111121 72 355 2.0 4.0 0.00 0.00 0.00 92 1019.0
20260901111029 72 355 2.0 4.0 0.00 0.00 0.00 92 1019.0
20260901110937 72 344 2.0 3.0 0.00 0.00 0.00 92 1019.0
20260901110824 72 340 2.0 3.0 0.00 0.00 0.00 92 1019.0
20260901110731 72 343 2.0 3.0 0.00 0.00 0.00 92 1019.0
20260901110657 72 5 2.0 3.0 0.00 0.00 0.00 92 1019.1
20260901110527 72 5 2.0 3.0 0.00 0.00 0.00 92 1019.0
20260901110455 72 5 2.0 3.0 0.00 0.00 0.00 92 1019.0
20260901110404 72 5 2.0 3.0 0.00 0.00 0.00 92 1019.0
20260901110137 72 5 2.0 3.0 0.00 0.00 0.00 92 1018.9
20260901110024 72 5 2.0 3.0 0.00 0.00 0.00 92 1018.9
20260901105936 72 5 2.0 3.0 0.00 0.00 0.00 92 1019.0
20260901105824 72 5 2.0 3.0 0.00 0.00 0.00 92 1019.1
20260901105730 72 5 2.0 3.0 0.00 0.00 0.00 92 1018.9
20260901105636 72 5 2.0 3.0 0.00 0.00 0.00 92 1019.0
20260901105524 72 5 2.0 3.0 0.00 0.00 0.00 92 1019.0
20260901105435 72 5 2.0 3.0 0.00 0.00 0.00 92 1018.9
20260901105324 72 5 2.0 3.0 0.00 0.00 0.00 92 1019.0
20260901105232 72 5 2.0 3.0 0.00 0.00 0.00 92 1019.0
20260901105139 72 5 2.0 3.0 0.00 0.00 0.00 92 1019.1
20260901105027 72 5 2.0 3.0 0.00 0.00 0.00 92 1019.0
20260901104908 72 5 2.0 3.0 0.00 0.00 0.00 92 1019.1
20260901104622 72 5 2.0 3.0 0.00 0.00 0.00 92 1019.0
20260901104530 72 5 2.0 3.0 0.00 0.00 0.00 92 1019.0
20260901104439 72 5 2.0 3.0 0.00 0.00 0.00 92 1019.1
20260901104329 72 5 2.0 3.0 0.00 0.00 0.00 92 1019.0
20260901104237 72 5 2.0 3.0 0.00 0.00 0.00 92 1018.9
20260901104124 72 5 2.0 3.0 0.00 0.00 0.00 91 1018.9
20260901104031 72 5 2.0 3.0 0.00 0.00 0.00 91 1018.9
20260901103959 72 5 2.0 3.0 0.00 0.00 0.00 91 1019.0
20260901103824 72 5 2.0 3.0 0.00 0.00 0.00 91 1018.9
20260901103736 72 5 2.0 3.0 0.00 0.00 0.00 91 1018.9
20260901103623 72 5 2.0 3.0 0.00 0.00 0.00 91 1018.9
20260901103551 72 5 2.0 3.0 0.00 0.00 0.00 91 1018.9
20260901103437 72 5 2.0 3.0 0.00 0.00 0.00 91 1018.9
20260901103408 72 5 1.0 2.0 0.00 0.00 0.00 91 1018.9
20260901103125 72 5 0.0 2.0 0.00 0.00 0.00 92 1018.8
20260901103033 72 5 0.0 1.0 0.00 0.00 0.00 92 1018.9
20260901102940 72 5 0.0 1.0 0.00 0.00 0.00 92 1018.8
20260901102847 72 5 0.0 2.0 0.00 0.00 0.00 91 1018.8
20260901102733 72 5 0.0 2.0 0.00 0.00 0.00 91 1018.9
20260901102625 72 5 0.0 2.0 0.00 0.00 0.00 91 1018.9
20260901102532 72 5 0.0 2.0 0.00 0.00 0.00 91 1018.8
20260901102420 72 5 0.0 2.0 0.00 0.00 0.00 91 1018.8
20260901102348 72 5 0.0 2.0 0.00 0.00 0.00 91 1018.8
20260901102235 72 5 1.0 2.0 0.00 0.00 0.00 91 1018.8
20260901102121 72 5 1.0 2.0 0.00 0.00 0.00 91 1018.8
20260901102033 72 5 1.0 2.0 0.00 0.00 0.00 91 1018.8
20260901101932 72 5 1.0 2.0 0.00 0.00 0.00 91 1018.8
20260901101624 73 5 1.0 2.0 0.00 0.00 0.00 91 1018.7
20260901101532 73 5 1.0 2.0 0.00 0.00 0.00 91 1018.7
20260901101424 73 5 1.0 2.0 0.00 0.00 0.00 91 1018.7
20260901101332 73 5 1.0 2.0 0.00 0.00 0.00 91 1018.7
20260901101240 73 5 1.0 2.0 0.00 0.00 0.00 91 1018.7
20260901101125 73 5 1.0 2.0 0.00 0.00 0.00 92 1018.7
20260901101033 73 5 1.0 2.0 0.00 0.00 0.00 92 1018.7
20260901100925 73 5 1.0 2.0 0.00 0.00 0.00 92 1018.8
20260901100831 73 5 1.0 2.0 0.00 0.00 0.00 92 1018.7
20260901100739 73 5 1.0 2.0 0.00 0.00 0.00 92 1018.7
20260901100627 73 5 1.0 2.0 0.00 0.00 0.00 92 1018.7
20260901100533 73 5 1.0 2.0 0.00 0.00 0.00 92 1018.8
20260901100442 73 5 1.0 2.0 0.00 0.00 0.00 92 1018.7
20260901100356 73 5 1.0 2.0 0.00 0.00 0.00 92 1018.7
20260901100129 73 5 2.0 2.0 0.00 0.00 0.00 92 1018.6
20260901100056 73 5 2.0 2.0 0.00 0.00 0.00 93 1018.7
20260901095923 73 5 1.0 2.0 0.00 0.00 0.00 93 1018.6
20260901095829 73 5 1.0 2.0 0.00 0.00 0.00 93 1018.6
20260901095720 73 5 1.0 2.0 0.00 0.00 0.00 93 1018.6
20260901095627 73 5 1.0 2.0 0.00 0.00 0.00 93 1018.6
20260901095535 73 5 1.0 2.0 0.00 0.00 0.00 92 1018.5
20260901095423 73 5 1.0 2.0 0.00 0.00 0.00 92 1018.6
20260901095331 73 5 1.0 2.0 0.00 0.00 0.00 92 1018.5
20260901095222 73 5 1.0 2.0 0.00 0.00 0.00 92 1018.6
20260901095130 73 5 1.0 2.0 0.00 0.00 0.00 92 1018.5
20260901095037 73 5 1.0 2.0 0.00 0.00 0.00 92 1018.6
20260901094944 73 5 1.0 2.0 0.00 0.00 0.00 92 1018.5
20260901094916 73 5 1.0 2.0 0.00 0.00 0.00 92 1018.5
20260901094631 73 5 1.0 1.0 0.00 0.00 0.00 92 1018.5
20260901094539 73 5 1.0 1.0 0.00 0.00 0.00 92 1018.5
20260901094426 73 5 0.0 1.0 0.00 0.00 0.00 92 1018.5
20260901094333 73 5 0.0 0.0 0.00 0.00 0.00 92 1018.5
20260901094222 73 5 0.0 0.0 0.00 0.00 0.00 92 1018.5
20260901094130 73 5 0.0 0.0 0.00 0.00 0.00 92 1018.5
20260901094021 73 5 0.0 0.0 0.00 0.00 0.00 92 1018.5
20260901093929 73 5 0.0 0.0 0.00 0.00 0.00 92 1018.4
20260901093837 73 5 0.0 0.0 0.00 0.00 0.00 92 1018.5
20260901093745 73 5 0.0 0.0 0.00 0.00 0.00 92 1018.4
20260901093632 73 5 0.0 0.0 0.00 0.00 0.00 92 1018.3
20260901093538 73 5 0.0 0.0 0.00 0.00 0.00 92 1018.5
20260901093511 73 5 0.0 0.0 0.00 0.00 0.00 92 1018.5
20260901093358 73 5 0.0 0.0 0.00 0.00 0.00 92 1018.4
20260901093132 73 5 0.0 0.0 0.00 0.00 0.00 92 1018.5
20260901093039 73 5 0.0 0.0 0.00 0.00 0.00 92 1018.4
20260901092947 73 5 0.0 0.0 0.00 0.00 0.00 92 1018.4
20260901092836 73 5 0.0 0.0 0.00 0.00 0.00 92 1018.4
20260901092724 73 5 0.0 0.0 0.00 0.00 0.00 92 1018.4
20260901092632 73 5 0.0 0.0 0.00 0.00 0.00 92 1018.5
20260901092600 73 5 0.0 0.0 0.00 0.00 0.00 92 1018.5
20260901092425 73 5 0.0 0.0 0.00 0.00 0.00 92 1018.5
20260901092332 73 5 0.0 0.0 0.00 0.00 0.00 92 1018.5
20260901092224 73 5 0.0 0.0 0.00 0.00 0.00 92 1018.4
20260901092131 73 5 0.0 0.0 0.00 0.00 0.00 92 1018.4
20260901092037 73 5 0.0 0.0 0.00 0.00 0.00 92 1018.5
20260901091924 73 5 0.0 0.0 0.00 0.00 0.00 92 1018.4
20260901091855 73 5 0.0 1.0 0.00 0.00 0.00 92 1018.4
20260901091632 73 5 0.0 2.0 0.00 0.00 0.00 92 1018.3
20260901091539 73 5 0.0 2.0 0.00 0.00 0.00 92 1018.4
20260901091446 73 5 0.0 2.0 0.00 0.00 0.00 92 1018.4
20260901091352 73 5 0.0 2.0 0.00 0.00 0.00 91 1018.3
20260901091239 73 5 0.0 2.0 0.00 0.00 0.00 91 1018.3
20260901091126 73 5 0.0 2.0 0.00 0.00 0.00 91 1018.3
20260901091038 73 5 0.0 2.0 0.00 0.00 0.00 91 1018.2
20260901090946 73 5 1.0 2.0 0.00 0.00 0.00 91 1018.2
20260901090852 73 5 1.0 2.0 0.00 0.00 0.00 91 1018.3
20260901090739 73 5 1.0 2.0 0.00 0.00 0.00 91 1018.3
20260901090627 73 5 1.0 2.0 0.00 0.00 0.00 91 1018.3
20260901090535 73 5 1.0 2.0 0.00 0.00 0.00 90 1018.2
20260901090427 73 5 1.0 2.0 0.00 0.00 0.00 90 1018.3
20260901090358 73 5 1.0 2.0 0.00 0.00 0.00 90 1018.3
20260901090130 73 5 1.0 2.0 0.00 0.00 0.00 90 1018.2
20260901090036 73 5 2.0 2.0 0.00 0.00 0.00 90 1018.2
20260901085924 73 5 2.0 2.0 0.00 0.00 0.00 90 1018.3
20260901085835 73 5 2.0 2.0 0.00 0.00 0.00 90 1018.2
20260901085722 73 5 2.0 2.0 0.00 0.00 0.00 91 1018.2
20260901085650 73 5 2.0 2.0 0.00 0.00 0.00 91 1018.2
20260901085537 73 5 2.0 2.0 0.00 0.00 0.00 91 1018.2
20260901085425 74 5 2.0 2.0 0.00 0.00 0.00 91 1018.1
20260901085332 74 5 1.0 2.0 0.00 0.00 0.00 91 1018.2
20260901085244 74 5 1.0 2.0 0.00 0.00 0.00 91 1018.1
20260901085131 74 5 1.0 2.0 0.00 0.00 0.00 91 1018.2
20260901085038 74 5 1.0 2.0 0.00 0.00 0.00 91 1018.1
20260901084946 74 5 1.0 2.0 0.00 0.00 0.00 91 1018.0
20260901084856 74 5 1.0 2.0 0.00 0.00 0.00 91 1018.0
20260901084653 74 5 1.0 2.0 0.00 0.00 0.00 91 1018.1
20260901084539 74 5 2.0 2.0 0.00 0.00 0.00 91 1018.1
20260901084426 74 5 2.0 2.0 0.00 0.00 0.00 91 1018.1
20260901084333 74 5 1.0 2.0 0.00 0.00 0.00 91 1018.1
20260901084220 74 5 1.0 2.0 0.00 0.00 0.00 91 1018.1
20260901084128 74 5 1.0 1.0 0.00 0.00 0.00 91 1018.2
20260901084040 74 5 0.0 1.0 0.00 0.00 0.00 91 1018.1
20260901083927 74 5 0.0 0.0 0.00 0.00 0.00 91 1018.1
20260901083835 74 5 0.0 0.0 0.00 0.00 0.00 91 1018.1
20260901083723 74 5 0.0 1.0 0.00 0.00 0.00 91 1018.1
20260901083631 74 5 0.0 1.0 0.00 0.00 0.00 91 1018.1
20260901083521 74 5 0.0 1.0 0.00 0.00 0.00 91 1018.0
20260901083448 74 5 0.0 1.0 0.00 0.00 0.00 91 1018.1
20260901083419 74 5 0.0 1.0 0.00 0.00 0.00 90 1018.1
20260901083130 74 5 0.0 1.0 0.00 0.00 0.00 90 1018.1
20260901083039 74 5 0.0 1.0 0.00 0.00 0.00 90 1018.1
20260901082930 74 5 0.0 1.0 0.00 0.00 0.00 90 1018.0
20260901082837 74 5 0.0 1.0 0.00 0.00 0.00 90 1018.0
20260901082725 74 5 0.0 1.0 0.00 0.00 0.00 91 1018.1
20260901082634 74 5 0.0 0.0 0.00 0.00 0.00 91 1018.1
20260901082521 74 5 0.0 0.0 0.00 0.00 0.00 91 1018.0
20260901082434 74 5 0.0 1.0 0.00 0.00 0.00 91 1018.1
20260901082321 74 5 0.0 2.0 0.00 0.00 0.00 91 1018.0
20260901082228 74 5 0.0 2.0 0.00 0.00 0.00 91 1018.1
20260901082136 74 5 0.0 2.0 0.00 0.00 0.00 91 1018.0
20260901082023 74 5 0.0 2.0 0.00 0.00 0.00 91 1018.0
20260901081906 74 5 0.0 2.0 0.00 0.00 0.00 91 1018.0
20260901081638 74 5 0.0 2.0 0.00 0.00 0.00 91 1018.0
20260901081526 74 5 1.0 2.0 0.00 0.00 0.00 90 1018.0
20260901081433 74 5 1.0 2.0 0.00 0.00 0.00 90 1018.1
20260901081324 74 5 0.0 1.0 0.00 0.00 0.00 91 1018.1
20260901081230 74 5 0.0 0.0 0.00 0.00 0.00 91 1018.1
20260901081138 74 5 0.0 0.0 0.00 0.00 0.00 91 1018.1
20260901081025 74 5 0.0 0.0 0.00 0.00 0.00 91 1018.0
20260901080932 74 5 0.0 0.0 0.00 0.00 0.00 91 1018.0
20260901080824 74 5 0.0 0.0 0.00 0.00 0.00 91 1018.1
20260901080731 74 5 0.0 1.0 0.00 0.00 0.00 91 1018.1
20260901080638 74 5 0.0 1.0 0.00 0.00 0.00 91 1018.0
20260901080544 74 5 0.0 1.0 0.00 0.00 0.00 91 1018.1
20260901080404 74 5 0.0 1.0 0.00 0.00 0.00 90 1018.0
20260901080138 74 5 0.0 1.0 0.00 0.00 0.00 90 1018.0
20260901080045 74 5 0.0 1.0 0.00 0.00 0.00 90 1018.1
20260901075931 74 5 1.0 1.0 0.00 0.00 0.00 90 1018.0
20260901075839 74 5 0.0 1.0 0.00 0.00 0.00 90 1017.9
20260901075727 74 5 0.0 1.0 0.00 0.00 0.00 89 1017.9
20260901075620 74 5 0.0 1.0 0.00 0.00 0.00 89 1018.0
20260901075527 74 5 0.0 2.0 0.00 0.00 0.00 89 1018.0
20260901075435 74 5 0.0 2.0 0.00 0.00 0.00 88 1018.0
20260901075323 74 5 1.0 2.0 0.00 0.00 0.00 89 1018.0
20260901075230 74 5 1.0 2.0 0.00 0.00 0.00 89 1018.0
20260901075157 74 5 1.0 2.0 0.00 0.00 0.00 89 1017.9
20260901075027 74 5 1.0 2.0 0.00 0.00 0.00 89 1018.0
20260901074934 74 5 1.0 2.0 0.00 0.00 0.00 89 1018.0
20260901074904 74 5 1.0 2.0 0.00 0.00 0.00 88 1018.0
20260901074637 74 5 1.0 2.0 0.00 0.00 0.00 88 1018.0
20260901074544 74 5 1.0 2.0 0.00 0.00 0.00 88 1018.0
20260901074436 74 5 1.0 2.0 0.00 0.00 0.00 88 1018.0
20260901074324 74 5 1.0 2.0 0.00 0.00 0.00 88 1018.0
20260901074232 74 5 1.0 2.0 0.00 0.00 0.00 88 1018.0
20260901074139 74 5 1.0 2.0 0.00 0.00 0.00 88 1017.9
20260901074027 74 5 1.0 2.0 0.00 0.00 0.00 88 1018.0
20260901073939 74 5 1.0 2.0 0.00 0.00 0.00 88 1018.0
20260901073826 74 5 2.0 3.0 0.00 0.00 0.00 88 1018.0
20260901073735 74 5 2.0 3.0 0.00 0.00 0.00 88 1018.0
20260901073623 74 5 2.0 3.0 0.00 0.00 0.00 88 1017.9
20260901073531 74 5 1.0 3.0 0.00 0.00 0.00 88 1018.0
20260901073422 74 5 2.0 3.0 0.00 0.00 0.00 89 1018.0
20260901073354 74 5 2.0 3.0 0.00 0.00 0.00 89 1018.0
20260901073128 74 5 2.0 3.0 0.00 0.00 0.00 89 1018.0
20260901073036 74 5 2.0 3.0 0.00 0.00 0.00 89 1018.0
20260901072924 74 5 2.0 3.0 0.00 0.00 0.00 89 1018.0
20260901072856 74 5 2.0 3.0 0.00 0.00 0.00 89 1018.0
20260901072721 74 5 2.0 3.0 0.00 0.00 0.00 89 1018.0
20260901072629 74 5 2.0 3.0 0.00 0.00 0.00 89 1018.0
20260901072538 74 5 2.0 3.0 0.00 0.00 0.00 89 1017.9
20260901072425 74 5 2.0 3.0 0.00 0.00 0.00 89 1018.0
20260901072353 74 5 2.0 3.0 0.00 0.00 0.00 88 1017.9
20260901072222 74 5 2.0 3.0 0.00 0.00 0.00 88 1018.0
20260901072130 74 5 2.0 3.0 0.00 0.00 0.00 88 1017.9
20260901072058 74 5 2.0 3.0 0.00 0.00 0.00 88 1018.0
20260901072005 74 5 2.0 3.0 0.00 0.00 0.00 88 1018.0
20260901071914 75 5 2.0 3.0 0.00 0.00 0.00 88 1018.0
20260901071630 75 5 2.0 3.0 0.00 0.00 0.00 88 1017.9
20260901071537 75 5 1.0 3.0 0.00 0.00 0.00 88 1018.0
20260901071426 75 5 0.0 1.0 0.00 0.00 0.00 88 1018.0
20260901071333 75 5 0.0 1.0 0.00 0.00 0.00 88 1017.9
20260901071221 75 5 0.0 1.0 0.00 0.00 0.00 88 1018.0
20260901071129 75 5 0.0 2.0 0.00 0.00 0.00 88 1018.0
20260901071021 75 5 0.0 2.0 0.00 0.00 0.00 88 1018.1
20260901070949 75 5 0.0 2.0 0.00 0.00 0.00 88 1017.9
20260901070834 75 5 0.0 2.0 0.00 0.00 0.00 88 1017.9
20260901070721 75 5 1.0 2.0 0.00 0.00 0.00 88 1018.0
20260901070629 75 5 0.0 2.0 0.00 0.00 0.00 88 1018.0
20260901070520 75 5 1.0 2.0 0.00 0.00 0.00 88 1018.0
20260901070449 75 5 1.0 2.0 0.00 0.00 0.00 88 1018.1
20260901070420 75 5 1.0 2.0 0.00 0.00 0.00 88 1018.1
20260901070153 75 5 0.0 1.0 0.00 0.00 0.00 88 1018.0
20260901070040 75 5 0.0 1.0 0.00 0.00 0.00 88 1018.1
20260901065925 75 5 0.0 1.0 0.00 0.00 0.00 89 1018.0
20260901065838 75 5 0.0 1.0 0.00 0.00 0.00 89 1018.0
20260901065727 75 5 0.0 1.0 0.00 0.00 0.00 89 1018.0
20260901065634 75 5 0.0 1.0 0.00 0.00 0.00 89 1018.1
20260901065522 75 5 0.0 1.0 0.00 0.00 0.00 89 1018.1
20260901065427 75 5 0.0 1.0 0.00 0.00 0.00 89 1018.0
20260901065320 75 5 1.0 1.0 0.00 0.00 0.00 89 1018.0
20260901065227 75 5 1.0 1.0 0.00 0.00 0.00 89 1018.0
20260901065134 75 5 0.0 1.0 0.00 0.00 0.00 88 1018.1
20260901065021 75 5 0.0 1.0 0.00 0.00 0.00 88 1018.0
20260901064928 75 5 0.0 1.0 0.00 0.00 0.00 88 1018.1
20260901064903 75 5 0.0 1.0 0.00 0.00 0.00 88 1018.1
20260901064636 75 5 0.0 1.0 0.00 0.00 0.00 87 1018.0
20260901064524 75 5 0.0 1.0 0.00 0.00 0.00 88 1018.1
20260901064432 75 5 0.0 2.0 0.00 0.00 0.00 88 1018.1
20260901064338 76 5 0.0 2.0 0.00 0.00 0.00 88 1018.0
20260901064225 76 5 0.0 2.0 0.00 0.00 0.00 89 1018.0
20260901064131 76 5 0.0 2.0 0.00 0.00 0.00 89 1018.1
20260901064022 76 5 0.0 3.0 0.00 0.00 0.00 89 1018.0
20260901063930 76 5 0.0 3.0 0.00 0.00 0.00 89 1018.1
20260901063858 76 5 0.0 3.0 0.00 0.00 0.00 89 1018.0
20260901063742 76 5 1.0 3.0 0.00 0.00 0.00 88 1018.1
20260901063629 76 5 1.0 3.0 0.00 0.00 0.00 88 1018.1
20260901063557 76 5 2.0 3.0 0.00 0.00 0.00 88 1018.1
20260901063443 76 5 2.0 3.0 0.00 0.00 0.00 88 1018.1
20260901063356 76 5 2.0 3.0 0.00 0.00 0.00 87 1018.1
20260901063150 76 5 2.0 3.0 0.00 0.00 0.00 87 1018.2
20260901063056 76 5 1.0 3.0 0.00 0.00 0.00 87 1018.0
20260901062921 76 5 1.0 2.0 0.00 0.00 0.00 88 1018.1
20260901062828 76 5 1.0 1.0 0.00 0.00 0.00 89 1018.1
20260901062736 76 5 1.0 1.0 0.00 0.00 0.00 89 1018.1
20260901062628 76 5 0.0 1.0 0.00 0.00 0.00 89 1018.1
20260901062535 76 5 0.0 1.0 0.00 0.00 0.00 89 1018.1
20260901062422 76 5 0.0 1.0 0.00 0.00 0.00 89 1018.1
20260901062329 76 5 0.0 1.0 0.00 0.00 0.00 89 1018.1
20260901062238 76 5 0.0 1.0 0.00 0.00 0.00 89 1018.1
20260901062149 76 5 0.0 1.0 0.00 0.00 0.00 89 1018.1
20260901062035 76 5 0.0 1.0 0.00 0.00 0.00 89 1018.2
20260901061943 76 5 0.0 1.0 0.00 0.00 0.00 89 1018.2
20260901061913 76 5 0.0 1.0 0.00 0.00 0.00 88 1018.2
20260901061625 76 5 0.0 1.0 0.00 0.00 0.00 88 1018.3
20260901061537 76 5 0.0 1.0 0.00 0.00 0.00 88 1018.1
20260901061424 76 5 0.0 1.0 0.00 0.00 0.00 88 1018.2
20260901061332 76 5 0.0 1.0 0.00 0.00 0.00 88 1018.3
20260901061239 76 5 0.0 1.0 0.00 0.00 0.00 88 1018.1
20260901061127 76 5 0.0 1.0 0.00 0.00 0.00 88 1018.2
20260901061039 76 5 0.0 1.0 0.00 0.00 0.00 88 1018.2
20260901060925 76 5 0.0 1.0 0.00 0.00 0.00 88 1018.3
20260901060833 76 5 0.0 1.0 0.00 0.00 0.00 88 1018.2
20260901060721 76 5 1.0 1.0 0.00 0.00 0.00 88 1018.2
20260901060627 76 5 0.0 1.0 0.00 0.00 0.00 88 1018.3
20260901060555 76 5 0.0 1.0 0.00 0.00 0.00 88 1018.3
20260901060425 76 5 0.0 1.0 0.00 0.00 0.00 88 1018.3
20260901060356 76 5 0.0 2.0 0.00 0.00 0.00 87 1018.3
20260901060129 76 5 0.0 2.0 0.00 0.00 0.00 87 1018.2
20260901060037 76 5 0.0 2.0 0.00 0.00 0.00 87 1018.3
20260901055928 76 5 0.0 2.0 0.00 0.00 0.00 86 1018.3
20260901055834 76 5 0.0 2.0 0.00 0.00 0.00 87 1018.3
20260901055722 76 5 1.0 2.0 0.00 0.00 0.00 87 1018.3
20260901055629 76 5 1.0 2.0 0.00 0.00 0.00 87 1018.3
20260901055556 76 5 1.0 2.0 0.00 0.00 0.00 87 1018.3
20260901055423 76 5 1.0 2.0 0.00 0.00 0.00 88 1018.3
20260901055335 76 5 1.0 2.0 0.00 0.00 0.00 88 1018.3
20260901055222 76 5 1.0 2.0 0.00 0.00 0.00 87 1018.2
20260901055130 76 5 1.0 2.0 0.00 0.00 0.00 88 1018.3
20260901055036 76 5 1.0 2.0 0.00 0.00 0.00 87 1018.2
20260901054943 76 5 1.0 2.0 0.00 0.00 0.00 87 1018.2
20260901054918 76 5 1.0 2.0 0.00 0.00 0.00 87 1018.2
20260901054632 76 5 1.0 2.0 0.00 0.00 0.00 87 1018.2
20260901054539 76 5 1.0 2.0 0.00 0.00 0.00 88 1018.2
20260901054426 76 5 2.0 2.0 0.00 0.00 0.00 88 1018.1
20260901054333 76 5 1.0 2.0 0.00 0.00 0.00 88 1018.3
20260901054300 76 5 1.0 2.0 0.00 0.00 0.00 88 1018.3
20260901054130 76 5 0.0 2.0 0.00 0.00 0.00 88 1018.3
20260901054037 76 5 0.0 2.0 0.00 0.00 0.00 88 1018.3
20260901053924 76 5 0.0 3.0 0.00 0.00 0.00 88 1018.4
20260901053832 76 5 0.0 3.0 0.00 0.00 0.00 88 1018.3
20260901053739 76 5 0.0 3.0 0.00 0.00 0.00 88 1018.3
20260901053631 76 5 1.0 3.0 0.00 0.00 0.00 88 1018.3
20260901053538 76 5 1.0 3.0 0.00 0.00 0.00 87 1018.3
20260901053426 76 5 2.0 3.0 0.00 0.00 0.00 87 1018.4
20260901053356 76 5 2.0 3.0 0.00 0.00 0.00 87 1018.4
20260901053129 76 5 2.0 3.0 0.00 0.00 0.00 87 1018.4
20260901053022 76 5 2.0 3.0 0.00 0.00 0.00 87 1018.3
20260901052930 76 5 2.0 3.0 0.00 0.00 0.00 87 1018.4
20260901052837 76 5 2.0 3.0 0.00 0.00 0.00 87 1018.4
20260901052725 77 5 2.0 3.0 0.00 0.00 0.00 87 1018.3
20260901052633 77 5 2.0 3.0 0.00 0.00 0.00 87 1018.3
20260901052524 77 5 2.0 3.0 0.00 0.00 0.00 87 1018.4
20260901052432 77 5 2.0 3.0 0.00 0.00 0.00 87 1018.3
20260901052340 77 5 2.0 3.0 0.00 0.00 0.00 87 1018.4
20260901052227 77 5 2.0 3.0 0.00 0.00 0.00 87 1018.4
20260901052134 77 5 2.0 3.0 0.00 0.00 0.00 87 1018.4
20260901052024 77 5 2.0 3.0 0.00 0.00 0.00 87 1018.4
20260901051930 77 5 2.0 3.0 0.00 0.00 0.00 87 1018.4
20260901051900 77 5 2.0 3.0 0.00 0.00 0.00 87 1018.4
20260901051633 77 5 1.0 3.0 0.00 0.00 0.00 87 1018.4
20260901051521 77 5 2.0 3.0 0.00 0.00 0.00 87 1018.4
20260901051451 77 5 2.0 3.0 0.00 0.00 0.00 87 1018.4
20260901051338 77 5 2.0 3.0 0.00 0.00 0.00 87 1018.4
20260901051223 77 5 2.0 3.0 0.00 0.00 0.00 87 1018.3
20260901051131 77 5 2.0 3.0 0.00 0.00 0.00 87 1018.4
20260901051038 77 5 3.0 3.0 0.00 0.00 0.00 87 1018.3
20260901050926 77 5 2.0 3.0 0.00 0.00 0.00 87 1018.4
20260901050838 77 5 2.0 3.0 0.00 0.00 0.00 87 1018.3
20260901050726 77 5 2.0 3.0 0.00 0.00 0.00 87 1018.3
20260901050633 77 5 2.0 3.0 0.00 0.00 0.00 87 1018.3
20260901050521 77 5 2.0 3.0 0.00 0.00 0.00 86 1018.3
20260901050428 77 5 2.0 3.0 0.00 0.00 0.00 86 1018.3
20260901050403 77 5 2.0 3.0 0.00 0.00 0.00 86 1018.3
20260901050136 77 5 2.0 3.0 0.00 0.00 0.00 86 1018.4
20260901050024 77 5 2.0 3.0 0.00 0.00 0.00 86 1018.3
20260901045932 77 5 2.0 3.0 0.00 0.00 0.00 86 1018.3
20260901045824 77 5 1.0 2.0 0.00 0.00 0.00 86 1018.2
20260901045731 77 5 1.0 2.0 0.00 0.00 0.00 87 1018.3
20260901045638 77 5 1.0 2.0 0.00 0.00 0.00 87 1018.3
20260901045526 77 5 1.0 2.0 0.00 0.00 0.00 87 1018.3
20260901045433 77 5 1.0 2.0 0.00 0.00 0.00 87 1018.3
20260901045320 77 5 1.0 2.0 0.00 0.00 0.00 87 1018.3
20260901045231 77 5 1.0 2.0 0.00 0.00 0.00 86 1018.3
20260901045139 77 5 1.0 2.0 0.00 0.00 0.00 86 1018.3
20260901045027 77 5 2.0 2.0 0.00 0.00 0.00 86 1018.3
20260901044953 77 5 1.0 2.0 0.00 0.00 0.00 86 1018.2
20260901044906 77 5 1.0 2.0 0.00 0.00 0.00 86 1018.2
20260901044623 77 5 1.0 2.0 0.00 0.00 0.00 87 1018.2
20260901044531 77 5 0.0 2.0 0.00 0.00 0.00 87 1018.3
20260901044439 77 5 0.0 1.0 0.00 0.00 0.00 87 1018.2
20260901044348 77 5 0.0 1.0 0.00 0.00 0.00 87 1018.3
20260901044233 77 5 0.0 1.0 0.00 0.00 0.00 87 1018.2
20260901044123 77 5 0.0 1.0 0.00 0.00 0.00 87 1018.2
20260901044031 77 5 0.0 1.0 0.00 0.00 0.00 87 1018.2
20260901043939 77 5 0.0 1.0 0.00 0.00 0.00 87 1018.2
20260901043827 77 5 0.0 1.0 0.00 0.00 0.00 87 1018.2
20260901043735 77 5 0.0 1.0 0.00 0.00 0.00 87 1018.1
20260901043643 77 5 1.0 2.0 0.00 0.00 0.00 87 1018.2
20260901043550 77 5 1.0 2.0 0.00 0.00 0.00 87 1018.2
20260901043440 77 5 1.0 2.0 0.00 0.00 0.00 87 1018.2
20260901043409 77 5 1.0 2.0 0.00 0.00 0.00 87 1018.2
20260901043143 77 5 1.0 2.0 0.00 0.00 0.00 87 1018.2
20260901043028 77 5 1.0 2.0 0.00 0.00 0.00 87 1018.2
20260901042920 77 5 1.0 2.0 0.00 0.00 0.00 87 1018.2
20260901042828 77 5 1.0 2.0 0.00 0.00 0.00 87 1018.2
20260901042734 77 5 1.0 2.0 0.00 0.00 0.00 86 1018.1
20260901042622 77 5 2.0 2.0 0.00 0.00 0.00 86 1018.2
20260901042529 77 5 2.0 2.0 0.00 0.00 0.00 86 1018.2
20260901042436 77 5 2.0 2.0 0.00 0.00 0.00 85 1018.2
20260901042347 77 5 2.0 2.0 0.00 0.00 0.00 85 1018.3
20260901042234 77 5 2.0 2.0 0.00 0.00 0.00 85 1018.2
20260901042121 77 5 2.0 2.0 0.00 0.00 0.00 84 1018.2
20260901042029 77 5 2.0 2.0 0.00 0.00 0.00 84 1018.2
20260901041935 77 5 2.0 2.0 0.00 0.00 0.00 84 1018.2
20260901041909 77 5 1.0 2.0 0.00 0.00 0.00 84 1018.2
20260901041622 77 5 1.0 2.0 0.00 0.00 0.00 84 1018.2
20260901041530 77 5 1.0 2.0 0.00 0.00 0.00 84 1018.2
20260901041437 77 5 1.0 2.0 0.00 0.00 0.00 84 1018.2
20260901041324 78 5 1.0 2.0 0.00 0.00 0.00 84 1018.3
20260901041235 78 5 1.0 2.0 0.00 0.00 0.00 84 1018.2
20260901041121 78 5 1.0 2.0 0.00 0.00 0.00 84 1018.2
20260901041049 78 5 0.0 1.0 0.00 0.00 0.00 85 1018.2
20260901040935 78 5 1.0 1.0 0.00 0.00 0.00 85 1018.2
20260901040843 78 5 0.0 1.0 0.00 0.00 0.00 85 1018.2
20260901040728 78 5 0.0 0.0 0.00 0.00 0.00 86 1018.2
20260901040635 78 5 0.0 1.0 0.00 0.00 0.00 86 1018.2
20260901040548 78 5 0.0 1.0 0.00 0.00 0.00 86 1018.2
20260901040515 78 5 0.0 1.0 0.00 0.00 0.00 86 1018.2
20260901040424 78 5 0.0 1.0 0.00 0.00 0.00 86 1018.1
20260901040137 78 5 0.0 1.0 0.00 0.00 0.00 86 1018.3
20260901040026 78 5 0.0 1.0 0.00 0.00 0.00 86 1018.2
20260901035936 78 5 0.0 1.0 0.00 0.00 0.00 86 1018.2
20260901035825 78 5 0.0 1.0 0.00 0.00 0.00 85 1018.2
20260901035733 78 5 0.0 1.0 0.00 0.00 0.00 85 1018.2
20260901035640 78 5 0.0 1.0 0.00 0.00 0.00 85 1018.3
20260901035527 78 5 0.0 1.0 0.00 0.00 0.00 85 1018.3
20260901035435 78 5 0.0 1.0 0.00 0.00 0.00 86 1018.2
20260901035347 78 5 0.0 1.0 0.00 0.00 0.00 85 1018.3
20260901035235 78 5 0.0 0.0 0.00 0.00 0.00 85 1018.2
20260901035142 78 5 0.0 0.0 0.00 0.00 0.00 85 1018.2
20260901035030 78 5 0.0 0.0 0.00 0.00 0.00 85 1018.2
20260901034910 78 5 0.0 0.0 0.00 0.00 0.00 85 1018.2
20260901034624 78 5 0.0 0.0 0.00 0.00 0.00 84 1018.2
20260901034532 78 5 0.0 0.0 0.00 0.00 0.00 84 1018.1
20260901034439 78 5 0.0 0.0 0.00 0.00 0.00 84 1018.2
20260901034326 78 5 0.0 0.0 0.00 0.00 0.00 84 1018.1
20260901034254 78 5 0.0 0.0 0.00 0.00 0.00 84 1018.1
20260901034124 78 5 0.0 0.0 0.00 0.00 0.00 84 1018.0
20260901034030 78 5 0.0 0.0 0.00 0.00 0.00 84 1018.1
20260901033938 78 5 0.0 0.0 0.00 0.00 0.00 84 1018.1
20260901033826 78 5 0.0 1.0 0.00 0.00 0.00 83 1018.1
20260901033734 78 5 0.0 1.0 0.00 0.00 0.00 83 1018.1
20260901033646 79 5 0.0 1.0 0.00 0.00 0.00 83 1018.1
20260901033532 79 5 0.0 1.0 0.00 0.00 0.00 83 1018.2
20260901033439 79 5 0.0 1.0 0.00 0.00 0.00 83 1018.2
20260901033409 79 5 0.0 1.0 0.00 0.00 0.00 82 1018.2
20260901033123 79 5 0.0 1.0 0.00 0.00 0.00 83 1018.3
20260901033034 79 5 0.0 1.0 0.00 0.00 0.00 83 1018.3
20260901032922 79 5 1.0 1.0 0.00 0.00 0.00 83 1018.2
20260901032829 79 5 1.0 1.0 0.00 0.00 0.00 83 1018.3
20260901032737 79 5 1.0 1.0 0.00 0.00 0.00 83 1018.3
20260901032624 79 5 1.0 1.0 0.00 0.00 0.00 83 1018.3
20260901032535 79 5 0.0 1.0 0.00 0.00 0.00 83 1018.4
20260901032422 79 5 0.0 0.0 0.00 0.00 0.00 83 1018.4
20260901032330 79 5 0.0 0.0 0.00 0.00 0.00 83 1018.3
20260901032238 80 5 0.0 0.0 0.00 0.00 0.00 83 1018.3
20260901032125 80 5 0.0 0.0 0.00 0.00 0.00 83 1018.3
20260901032032 80 5 0.0 0.0 0.00 0.00 0.00 83 1018.4
20260901032004 80 5 0.0 0.0 0.00 0.00 0.00 83 1018.4
20260901031934 80 5 0.0 0.0 0.00 0.00 0.00 83 1018.3
20260901031627 80 5 0.0 0.0 0.00 0.00 0.00 83 1018.2
20260901031535 80 5 0.0 0.0 0.00 0.00 0.00 83 1018.2
20260901031427 80 5 0.0 0.0 0.00 0.00 0.00 83 1018.2
20260901031334 80 5 0.0 0.0 0.00 0.00 0.00 83 1018.3
20260901031242 80 5 0.0 0.0 0.00 0.00 0.00 83 1018.3
20260901031128 80 5 0.0 0.0 0.00 0.00 0.00 83 1018.3
20260901031036 80 5 0.0 0.0 0.00 0.00 0.00 84 1018.3
20260901030924 80 5 0.0 0.0 0.00 0.00 0.00 83 1018.3
20260901030835 80 5 0.0 0.0 0.00 0.00 0.00 83 1018.2
20260901030723 80 5 0.0 0.0 0.00 0.00 0.00 83 1018.3
20260901030630 80 5 0.0 0.0 0.00 0.00 0.00 82 1018.2
20260901030536 80 5 0.0 0.0 0.00 0.00 0.00 82 1018.3
20260901030424 80 5 0.0 0.0 0.00 0.00 0.00 82 1018.3
20260901030358 80 5 0.0 0.0 0.00 0.00 0.00 82 1018.3
20260901030132 80 5 0.0 0.0 0.00 0.00 0.00 82 1018.3
20260901030039 80 5 0.0 0.0 0.00 0.00 0.00 81 1018.3
20260901025948 80 5 0.0 0.0 0.00 0.00 0.00 81 1018.4
20260901025833 80 5 0.0 0.0 0.00 0.00 0.00 81 1018.3
20260901025724 80 5 0.0 0.0 0.00 0.00 0.00 81 1018.3
20260901025632 80 5 0.0 0.0 0.00 0.00 0.00 81 1018.3
20260901025538 80 5 0.0 0.0 0.00 0.00 0.00 81 1018.3
20260901025425 80 5 0.0 0.0 0.00 0.00 0.00 81 1018.3
20260901025333 80 5 0.0 0.0 0.00 0.00 0.00 81 1018.3
20260901025220 80 5 0.0 0.0 0.00 0.00 0.00 81 1018.4
20260901025133 81 5 0.0 0.0 0.00 0.00 0.00 81 1018.3
20260901025101 81 5 0.0 0.0 0.00 0.00 0.00 81 1018.3
20260901024947 81 5 0.0 0.0 0.00 0.00 0.00 81 1018.3
20260901024856 81 5 0.0 0.0 0.00 0.00 0.00 80 1018.3
20260901024630 81 5 0.0 0.0 0.00 0.00 0.00 80 1018.3
20260901024521 81 5 0.0 0.0 0.00 0.00 0.00 80 1018.4
20260901024428 81 5 0.0 0.0 0.00 0.00 0.00 80 1018.3
20260901024355 81 5 0.0 0.0 0.00 0.00 0.00 79 1018.3
20260901024222 81 5 0.0 0.0 0.00 0.00 0.00 79 1018.3
20260901024130 81 5 0.0 0.0 0.00 0.00 0.00 79 1018.3
20260901024038 81 5 0.0 0.0 0.00 0.00 0.00 79 1018.3
20260901023945 81 5 0.0 0.0 0.00 0.00 0.00 79 1018.2
20260901023836 81 5 0.0 0.0 0.00 0.00 0.00 78 1018.2
20260901023744 81 5 0.0 0.0 0.00 0.00 0.00 78 1018.2
20260901023630 81 5 0.0 0.0 0.00 0.00 0.00 78 1018.3
20260901023558 81 5 0.0 0.0 0.00 0.00 0.00 78 1018.2
20260901023424 81 5 0.0 1.0 0.00 0.00 0.00 78 1018.2
20260901023358 81 5 0.0 1.0 0.00 0.00 0.00 78 1018.2
20260901023131 81 5 0.0 1.0 0.00 0.00 0.00 78 1018.1
20260901023100 81 5 0.0 1.0 0.00 0.00 0.00 78 1018.2
20260901022927 81 5 0.0 1.0 0.00 0.00 0.00 78 1018.2
20260901022833 81 5 0.0 1.0 0.00 0.00 0.00 78 1018.2
20260901022722 81 5 0.0 1.0 0.00 0.00 0.00 78 1018.1
20260901022654 81 5 0.0 1.0 0.00 0.00 0.00 77 1018.2
20260901022521 81 5 0.0 1.0 0.00 0.00 0.00 77 1018.1
20260901022428 81 259 0.0 1.0 0.00 0.00 0.00 77 1018.1
20260901022336 81 259 0.0 0.0 0.00 0.00 0.00 77 1018.1
20260901022242 81 259 0.0 0.0 0.00 0.00 0.00 77 1018.1
20260901022129 81 259 0.0 1.0 0.00 0.00 0.00 77 1018.1
20260901022041 81 259 0.0 1.0 0.00 0.00 0.00 77 1018.0
20260901021949 82 259 0.0 1.0 0.00 0.00 0.00 77 1018.1
20260901021858 82 259 0.0 2.0 0.00 0.00 0.00 76 1018.1
20260901021632 82 259 0.0 2.0 0.00 0.00 0.00 76 1018.1
20260901021539 82 259 0.0 2.0 0.00 0.00 0.00 76 1018.1
20260901021431 82 259 0.0 2.0 0.00 0.00 0.00 76 1018.1
20260901021339 82 259 0.0 2.0 0.00 0.00 0.00 75 1018.1
20260901021246 82 259 0.0 2.0 0.00 0.00 0.00 75 1018.0
20260901021133 82 259 1.0 2.0 0.00 0.00 0.00 75 1018.0
20260901021021 82 259 1.0 2.0 0.00 0.00 0.00 75 1018.0
20260901020948 82 259 1.0 2.0 0.00 0.00 0.00 74 1018.1
20260901020856 82 259 1.0 2.0 0.00 0.00 0.00 75 1018.1
20260901020727 82 259 1.0 2.0 0.00 0.00 0.00 75 1018.0
20260901020635 82 259 1.0 2.0 0.00 0.00 0.00 74 1018.0
20260901020523 82 259 1.0 2.0 0.00 0.00 0.00 75 1018.0
20260901020430 83 259 0.0 1.0 0.00 0.00 0.00 75 1018.0
20260901020403 83 259 0.0 1.0 0.00 0.00 0.00 74 1018.0
20260901020136 83 259 0.0 1.0 0.00 0.00 0.00 74 1018.0
20260901020043 83 259 0.0 1.0 0.00 0.00 0.00 75 1018.0
20260901015930 83 259 0.0 0.0 0.00 0.00 0.00 75 1018.0
20260901015838 83 259 0.0 0.0 0.00 0.00 0.00 75 1017.9
20260901015745 83 259 0.0 0.0 0.00 0.00 0.00 75 1017.9
20260901015632 83 259 0.0 0.0 0.00 0.00 0.00 74 1017.9
20260901015523 83 259 0.0 0.0 0.00 0.00 0.00 74 1017.9
20260901015430 83 259 0.0 0.0 0.00 0.00 0.00 74 1017.9
20260901015358 83 259 0.0 0.0 0.00 0.00 0.00 74 1017.9
20260901015225 83 259 0.0 0.0 0.00 0.00 0.00 74 1017.9
20260901015132 83 259 0.0 0.0 0.00 0.00 0.00 74 1017.9
20260901015058 83 259 0.0 0.0 0.00 0.00 0.00 74 1017.9
20260901014949 83 259 0.0 0.0 0.00 0.00 0.00 73 1017.9
20260901014857 83 259 0.0 0.0 0.00 0.00 0.00 73 1017.9
20260901014632 84 259 0.0 0.0 0.00 0.00 0.00 73 1017.8
20260901014539 84 259 0.0 0.0 0.00 0.00 0.00 73 1017.8
20260901014428 84 259 0.0 1.0 0.00 0.00 0.00 73 1017.8
20260901014338 84 259 0.0 1.0 0.00 0.00 0.00 73 1017.7
20260901014247 84 259 0.0 2.0 0.00 0.00 0.00 72 1017.7
20260901014133 84 259 0.0 2.0 0.00 0.00 0.00 72 1017.8
20260901014021 84 259 0.0 2.0 0.00 0.00 0.00 72 1017.8
20260901013949 84 259 0.0 2.0 0.00 0.00 0.00 72 1017.7
20260901013856 84 259 0.0 2.0 0.00 0.00 0.00 72 1017.8
20260901013727 84 259 0.0 2.0 0.00 0.00 0.00 72 1017.9
20260901013635 84 259 0.0 2.0 0.00 0.00 0.00 72 1017.8
20260901013522 84 259 1.0 2.0 0.00 0.00 0.00 72 1017.8
20260901013429 84 259 1.0 2.0 0.00 0.00 0.00 72 1017.9
20260901013400 85 259 1.0 2.0 0.00 0.00 0.00 71 1017.9
20260901013137 85 259 0.0 1.0 0.00 0.00 0.00 71 1017.8
20260901013025 85 259 0.0 0.0 0.00 0.00 0.00 71 1017.8
20260901012933 85 259 0.0 0.0 0.00 0.00 0.00 70 1017.8
20260901012820 85 259 0.0 0.0 0.00 0.00 0.00 70 1017.8
20260901012728 85 259 0.0 1.0 0.00 0.00 0.00 70 1017.8
20260901012656 85 259 0.0 1.0 0.00 0.00 0.00 70 1017.7
20260901012527 85 259 0.0 1.0 0.00 0.00 0.00 70 1017.7
20260901012434 85 259 0.0 1.0 0.00 0.00 0.00 69 1017.7
20260901012323 85 259 0.0 1.0 0.00 0.00 0.00 69 1017.8
20260901012231 85 259 0.0 1.0 0.00 0.00 0.00 69 1017.7
20260901012138 85 259 0.0 1.0 0.00 0.00 0.00 69 1017.7
20260901012030 85 259 0.0 1.0 0.00 0.00 0.00 69 1017.7
20260901011938 85 259 0.0 1.0 0.00 0.00 0.00 69 1017.6
20260901011909 86 259 0.0 1.0 0.00 0.00 0.00 69 1017.6
20260901011623 86 259 0.0 1.0 0.00 0.00 0.00 69 1017.7
20260901011535 86 259 0.0 1.0 0.00 0.00 0.00 68 1017.6
20260901011422 86 259 0.0 1.0 0.00 0.00 0.00 68 1017.7
20260901011329 86 259 0.0 1.0 0.00 0.00 0.00 68 1017.7
20260901011237 86 259 0.0 1.0 0.00 0.00 0.00 68 1017.6
20260901011143 86 259 0.0 1.0 0.00 0.00 0.00 68 1017.6
20260901011031 86 259 0.0 1.0 0.00 0.00 0.00 68 1017.6
20260901010922 86 259 0.0 1.0 0.00 0.00 0.00 68 1017.6
20260901010850 86 259 0.0 1.0 0.00 0.00 0.00 68 1017.6
20260901010737 86 259 0.0 2.0 0.00 0.00 0.00 67 1017.6
20260901010623 86 259 0.0 2.0 0.00 0.00 0.00 67 1017.6
20260901010550 87 259 0.0 3.0 0.00 0.00 0.00 67 1017.6
20260901010437 87 259 0.0 3.0 0.00 0.00 0.00 67 1017.6
20260901010412 87 259 1.0 3.0 0.00 0.00 0.00 67 1017.6
20260901010147 87 259 1.0 3.0 0.00 0.00 0.00 67 1017.6
20260901010033 87 259 1.0 3.0 0.00 0.00 0.00 67 1017.6
20260901005940 87 259 1.0 3.0 0.00 0.00 0.00 66 1017.6
20260901005828 87 259 1.0 5.0 0.00 0.00 0.00 66 1017.5
20260901005755 87 259 1.0 5.0 0.00 0.00 0.00 66 1017.6
20260901005626 87 212 1.0 5.0 0.00 0.00 0.00 65 1017.5
20260901005533 87 212 2.0 5.0 0.00 0.00 0.00 65 1017.6
20260901005501 87 208 2.0 5.0 0.00 0.00 0.00 65 1017.4
20260901005327 87 198 2.0 5.0 0.00 0.00 0.00 65 1017.4
20260901005235 87 213 2.0 5.0 0.00 0.00 0.00 65 1017.4
20260901005127 87 200 3.0 5.0 0.00 0.00 0.00 65 1017.3
20260901005054 87 215 3.0 5.0 0.00 0.00 0.00 65 1017.4
20260901004940 87 211 3.0 4.0 0.00 0.00 0.00 65 1017.3
20260901004910 87 189 3.0 4.0 0.00 0.00 0.00 65 1017.3
20260901004623 87 207 2.0 4.0 0.00 0.00 0.00 64 1017.2
20260901004536 87 198 2.0 4.0 0.00 0.00 0.00 64 1017.2
20260901004443 87 223 1.0 4.0 0.00 0.00 0.00 64 1017.2
20260901004330 88 238 2.0 4.0 0.00 0.00 0.00 64 1017.3
20260901004238 88 246 2.0 4.0 0.00 0.00 0.00 64 1017.2
20260901004125 88 209 2.0 4.0 0.00 0.00 0.00 64 1017.2
20260901004032 88 216 2.0 5.0 0.00 0.00 0.00 64 1017.2
20260901003923 88 205 2.0 5.0 0.00 0.00 0.00 64 1017.3
20260901003831 88 207 2.0 5.0 0.00 0.00 0.00 64 1017.2
20260901003800 88 213 2.0 5.0 0.00 0.00 0.00 63 1017.1
20260901003625 88 196 3.0 5.0 0.00 0.00 0.00 63 1017.1
20260901003532 88 214 3.0 5.0 0.00 0.00 0.00 63 1017.1
20260901003459 88 205 3.0 5.0 0.00 0.00 0.00 63 1017.2
20260901003411 88 223 3.0 5.0 0.00 0.00 0.00 63 1017.2
20260901003124 88 194 3.0 5.0 0.00 0.00 0.00 63 1017.1
20260901003031 88 201 3.0 6.0 0.00 0.00 0.00 63 1017.1
20260901002939 88 216 3.0 6.0 0.00 0.00 0.00 63 1017.1
20260901002827 88 205 4.0 6.0 0.00 0.00 0.00 63 1017.2
20260901002738 88 203 4.0 6.0 0.00 0.00 0.00 62 1017.2
20260901002626 88 196 3.0 6.0 0.00 0.00 0.00 63 1017.2
20260901002534 88 185 4.0 6.0 0.00 0.00 0.00 62 1017.2
20260901002421 88 213 4.0 6.0 0.00 0.00 0.00 62 1017.2
20260901002328 88 201 4.0 6.0 0.00 0.00 0.00 62 1017.2
20260901002235 88 209 4.0 6.0 0.00 0.00 0.00 62 1017.2
20260901002127 88 209 5.0 6.0 0.00 0.00 0.00 62 1017.1
20260901002036 88 192 4.0 6.0 0.00 0.00 0.00 62 1017.1
20260901001942 89 217 3.0 5.0 0.00 0.00 0.00 62 1017.2
20260901001913 89 194 3.0 5.0 0.00 0.00 0.00 62 1017.2
20260901001630 89 203 4.0 5.0 0.00 0.00 0.00 62 1017.1
20260901001556 89 190 4.0 5.0 0.00 0.00 0.00 62 1017.2
20260901001422 89 210 3.0 5.0 0.00 0.00 0.00 62 1017.2
20260901001330 89 184 4.0 6.0 0.00 0.00 0.00 62 1017.2
20260901001237 89 182 4.0 6.0 0.00 0.00 0.00 62 1017.2
20260901001124 89 209 3.0 6.0 0.00 0.00 0.00 61 1017.2
20260901001037 89 203 3.0 6.0 0.00 0.00 0.00 61 1017.2
20260901000925 89 190 3.0 6.0 0.00 0.00 0.00 61 1017.1
20260901000834 89 198 3.0 6.0 0.00 0.00 0.00 61 1017.1
20260901000741 89 196 4.0 6.0 0.00 0.00 0.00 61 1017.2
20260901000628 89 207 4.0 6.0 0.00 0.00 0.00 61 1017.2
20260901000535 89 207 4.0 6.0 0.00 0.00 0.00 61 1017.2
20260901000428 89 212 3.0 6.0 0.00 0.00 0.00 61 1017.2
20260901000358 89 200 3.0 6.0 0.00 0.00 0.00 61 1017.2
20260901000150 89 194 3.0 6.0 0.00 0.00 0.00 61 1017.2
20260901000037 89 190 2.0 6.0 0.00 0.00 0.00 61 1017.2
20260831235929 89 186 2.0 8.0 0.00 0.00 0.00 61 1017.2
20260831235836 90 203 2.0 8.0 0.00 0.00 0.00 61 1017.2
20260831235745 90 247 4.0 8.0 0.00 0.00 0.00 61 1017.2
20260831235631 90 192 4.0 8.0 0.00 0.00 0.00 61 1017.1
20260831235539 90 213 4.0 8.0 0.00 0.00 0.00 61 1017.2
20260831235426 90 197 3.0 8.0 0.00 0.00 0.00 61 1017.1
20260831235337 90 201 4.0 8.0 0.00 0.00 0.00 60 1017.2
20260831235224 90 183 5.0 8.0 0.00 0.00 0.00 60 1017.2
20260831235152 90 195 5.0 8.0 0.00 0.00 0.00 60 1017.2
20260831235039 90 196 4.0 7.0 0.00 0.00 0.00 61 1017.3
20260831234926 90 210 3.0 5.0 0.00 0.00 0.00 60 1017.3
20260831234900 90 207 4.0 5.0 0.00 0.00 0.00 60 1017.3
20260831234654 90 202 4.0 5.0 0.00 0.00 0.00 60 1017.2
20260831234521 90 202 3.0 7.0 0.00 0.00 0.00 60 1017.2
20260831234428 91 207 3.0 7.0 0.00 0.00 0.00 60 1017.2
20260831234335 91 200 4.0 7.0 0.00 0.00 0.00 60 1017.2
20260831234222 91 180 3.0 7.0 0.00 0.00 0.00 60 1017.1
20260831234132 91 192 3.0 7.0 0.00 0.00 0.00 59 1017.3
20260831234040 91 207 3.0 7.0 0.00 0.00 0.00 59 1017.2
20260831233927 91 174 4.0 7.0 0.00 0.00 0.00 59 1017.3
20260831233855 91 196 4.0 7.0 0.00 0.00 0.00 58 1017.2
20260831233723 91 178 4.0 7.0 0.00 0.00 0.00 58 1017.2
20260831233631 91 198 4.0 7.0 0.00 0.00 0.00 58 1017.2
20260831233523 91 179 4.0 7.0 0.00 0.00 0.00 58 1017.2
20260831233430 91 153 4.0 7.0 0.00 0.00 0.00 57 1017.2
20260831233402 91 147 4.0 7.0 0.00 0.00 0.00 57 1017.2
20260831233134 91 190 4.0 7.0 0.00 0.00 0.00 57 1017.2
20260831233026 91 184 4.0 7.0 0.00 0.00 0.00 57 1017.2
20260831232934 91 186 3.0 7.0 0.00 0.00 0.00 57 1017.2
20260831232821 91 188 2.0 5.0 0.00 0.00 0.00 57 1017.2
20260831232748 91 220 2.0 6.0 0.00 0.00 0.00 57 1017.3
20260831232635 91 132 3.0 6.0 0.00 0.00 0.00 56 1017.2
20260831232522 91 152 3.0 6.0 0.00 0.00 0.00 57 1017.3
20260831232434 91 188 3.0 8.0 0.00 0.00 0.00 56 1017.2
20260831232321 91 156 2.0 8.0 0.00 0.00 0.00 58 1017.2
20260831232250 91 154 2.0 8.0 0.00 0.00 0.00 57 1017.2
20260831232136 92 142 3.0 8.0 0.00 0.00 0.00 57 1017.3
20260831232024 92 189 4.0 8.0 0.00 0.00 0.00 57 1017.2
20260831231931 92 173 5.0 8.0 0.00 0.00 0.00 57 1017.2
20260831231904 92 227 5.0 8.0 0.00 0.00 0.00 57 1017.2
20260831231637 92 156 5.0 8.0 0.00 0.00 0.00 57 1017.2
20260831231524 92 126 4.0 8.0 0.00 0.00 0.00 57 1017.2
20260831231432 92 135 3.0 8.0 0.00 0.00 0.00 57 1017.1
20260831231343 92 142 2.0 8.0 0.00 0.00 0.00 58 1017.2
20260831231229 92 163 2.0 9.0 0.00 0.00 0.00 57 1017.2
20260831231138 92 245 3.0 9.0 0.00 0.00 0.00 57 1017.2
20260831231025 92 178 5.0 9.0 0.00 0.00 0.00 57 1017.3
20260831230934 92 182 5.0 9.0 0.00 0.00 0.00 57 1017.3
20260831230840 92 140 5.0 9.0 0.00 0.00 0.00 56 1017.3
20260831230730 92 103 4.0 9.0 0.00 0.00 0.00 55 1017.2
20260831230638 93 129 4.0 9.0 0.00 0.00 0.00 55 1017.3
20260831230547 93 134 4.0 9.0 0.00 0.00 0.00 55 1017.3
20260831230433 93 119 4.0 9.0 0.00 0.00 0.00 55 1017.3
20260831230403 93 134 4.0 8.0 0.00 0.00 0.00 55 1017.3
20260831230120 93 173 4.0 7.0 0.00 0.00 0.00 55 1017.2
20260831230027 93 146 2.0 7.0 0.00 0.00 0.00 55 1017.3
20260831225933 93 181 3.0 7.0 0.00 0.00 0.00 54 1017.3
20260831225821 93 169 4.0 7.0 0.00 0.00 0.00 56 1017.3
20260831225730 93 138 4.0 7.0 0.00 0.00 0.00 55 1017.3
20260831225620 93 171 4.0 7.0 0.00 0.00 0.00 55 1017.4
20260831225527 93 202 4.0 7.0 0.00 0.00 0.00 54 1017.2
20260831225435 93 226 3.0 8.0 0.00 0.00 0.00 55 1017.2
20260831225322 93 187 4.0 8.0 0.00 0.00 0.00 54 1017.4
20260831225229 93 175 3.0 8.0 0.00 0.00 0.00 54 1017.2
20260831225120 93 184 2.0 8.0 0.00 0.00 0.00 56 1017.2
20260831225028 93 158 3.0 8.0 0.00 0.00 0.00 55 1017.2
20260831224936 93 144 4.0 8.0 0.00 0.00 0.00 54 1017.2
20260831224906 93 151 4.0 8.0 0.00 0.00 0.00 55 1017.2
20260831224700 93 115 5.0 8.0 0.00 0.00 0.00 54 1017.3
20260831224532 93 182 4.0 7.0 0.00 0.00 0.00 55 1017.2
20260831224438 93 191 3.0 8.0 0.00 0.00 0.00 55 1017.4
20260831224324 93 136 2.0 8.0 0.00 0.00 0.00 55 1017.3
20260831224232 93 146 2.0 8.0 0.00 0.00 0.00 55 1017.3
20260831224140 93 143 1.0 8.0 0.00 0.00 0.00 53 1017.3
20260831224027 93 142 3.0 8.0 0.00 0.00 0.00 53 1017.2
20260831223920 94 142 5.0 8.0 0.00 0.00 0.00 53 1017.4
20260831223847 94 142 4.0 8.0 0.00 0.00 0.00 55 1017.4
20260831223733 94 142 4.0 8.0 0.00 0.00 0.00 54 1017.4
20260831223620 94 141 3.0 8.0 0.00 0.00 0.00 54 1017.4
20260831223527 94 150 2.0 8.0 0.00 0.00 0.00 53 1017.4
20260831223436 94 168 2.0 8.0 0.00 0.00 0.00 53 1017.4
20260831223410 94 116 2.0 4.0 0.00 0.00 0.00 53 1017.4
20260831223122 94 90 2.0 4.0 0.00 0.00 0.00 52 1017.3
20260831223030 94 44 2.0 4.0 0.00 0.00 0.00 52 1017.4
20260831222937 94 74 2.0 4.0 0.00 0.00 0.00 53 1017.3
20260831222849 94 78 2.0 4.0 0.00 0.00 0.00 55 1017.5
20260831222735 94 19 3.0 4.0 0.00 0.00 0.00 55 1017.4
20260831222622 94 28 2.0 4.0 0.00 0.00 0.00 53 1017.4
20260831222550 94 42 2.0 6.0 0.00 0.00 0.00 53 1017.3
20260831222437 94 27 2.0 7.0 0.00 0.00 0.00 54 1017.4
20260831222323 94 5 2.0 7.0 0.00 0.00 0.00 52 1017.3
20260831222234 94 350 1.0 7.0 0.00 0.00 0.00 53 1017.4
20260831222121 94 87 2.0 8.0 0.00 0.00 0.00 52 1017.4
20260831222029 94 82 2.0 8.0 0.00 0.00 0.00 53 1017.4
20260831221937 94 117 3.0 8.0 0.00 0.00 0.00 55 1017.4
20260831221907 94 110 3.0 8.0 0.00 0.00 0.00 53 1017.4
20260831221625 94 95 4.0 8.0 0.00 0.00 0.00 54 1017.4
20260831221531 94 131 5.0 8.0 0.00 0.00 0.00 55 1017.4
20260831221437 94 207 5.0 8.0 0.00 0.00 0.00 54 1017.4
20260831221323 94 204 5.0 8.0 0.00 0.00 0.00 54 1017.5
20260831221232 94 197 3.0 7.0 0.00 0.00 0.00 54 1017.4
20260831221124 93 183 2.0 7.0 0.00 0.00 0.00 55 1017.5
20260831221031 93 184 2.0 7.0 0.00 0.00 0.00 55 1017.4
20260831220937 93 214 2.0 7.0 0.00 0.00 0.00 55 1017.5
20260831220901 94 167 3.0 7.0 0.00 0.00 0.00 55 1017.5
20260831220727 94 134 4.0 7.0 0.00 0.00 0.00 54 1017.4
20260831220634 94 70 5.0 7.0 0.00 0.00 0.00 53 1017.4
20260831220525 94 150 4.0 7.0 0.00 0.00 0.00 54 1017.4
20260831220432 94 113 3.0 7.0 0.00 0.00 0.00 53 1017.4
20260831220403 94 115 3.0 7.0 0.00 0.00 0.00 53 1017.4
20260831220137 94 106 3.0 7.0 0.00 0.00 0.00 53 1017.4
20260831220026 94 137 3.0 7.0 0.00 0.00 0.00 52 1017.5
20260831215937 94 74 2.0 7.0 0.00 0.00 0.00 51 1017.5
20260831215824 94 58 3.0 7.0 0.00 0.00 0.00 51 1017.6
20260831215751 94 46 3.0 7.0 0.00 0.00 0.00 51 1017.5
20260831215638 94 126 4.0 7.0 0.00 0.00 0.00 51 1017.5
20260831215526 94 119 3.0 6.0 0.00 0.00 0.00 52 1017.6
20260831215433 94 129 3.0 6.0 0.00 0.00 0.00 51 1017.6
20260831215324 94 63 3.0 6.0 0.00 0.00 0.00 52 1017.6
20260831215231 94 107 2.0 6.0 0.00 0.00 0.00 51 1017.5
20260831215139 94 113 1.0 6.0 0.00 0.00 0.00 51 1017.6
20260831215025 94 50 2.0 6.0 0.00 0.00 0.00 51 1017.5
20260831214932 94 50 3.0 7.0 0.00 0.00 0.00 52 1017.6
20260831214907 94 28 3.0 7.0 0.00 0.00 0.00 52 1017.6
20260831214638 94 65 2.0 7.0 0.00 0.00 0.00 54 1017.6
20260831214525 94 80 2.0 7.0 0.00 0.00 0.00 53 1017.6
20260831214432 94 117 2.0 7.0 0.00 0.00 0.00 52 1017.6
20260831214324 94 140 3.0 7.0 0.00 0.00 0.00 53 1017.6
20260831214252 94 105 4.0 7.0 0.00 0.00 0.00 53 1017.5
20260831214139 94 71 4.0 6.0 0.00 0.00 0.00 52 1017.5
20260831214046 94 103 3.0 6.0 0.00 0.00 0.00 51 1017.6
20260831213932 94 59 4.0 6.0 0.00 0.00 0.00 51 1017.5
20260831213840 94 31 4.0 6.0 0.00 0.00 0.00 51 1017.6
20260831213727 94 57 4.0 6.0 0.00 0.00 0.00 51 1017.6
20260831213658 94 137 4.0 6.0 0.00 0.00 0.00 53 1017.6
20260831213544 95 118 3.0 7.0 0.00 0.00 0.00 51 1017.6
20260831213451 95 88 3.0 7.0 0.00 0.00 0.00 52 1017.6
20260831213421 95 130 3.0 7.0 0.00 0.00 0.00 54 1017.6
20260831213133 95 116 2.0 7.0 0.00 0.00 0.00 51 1017.5
20260831213024 95 235 1.0 6.0 0.00 0.00 0.00 51 1017.5
20260831212932 95 235 2.0 6.0 0.00 0.00 0.00 51 1017.6
20260831212819 95 5 2.0 6.0 0.00 0.00 0.00 52 1017.5
20260831212727 95 53 3.0 6.0 0.00 0.00 0.00 52 1017.6
20260831212635 95 89 2.0 6.0 0.00 0.00 0.00 53 1017.5
20260831212542 95 67 2.0 5.0 0.00 0.00 0.00 51 1017.6
20260831212433 94 88 2.0 5.0 0.00 0.00 0.00 52 1017.6
20260831212320 94 350 1.0 5.0 0.00 0.00 0.00 52 1017.6
20260831212227 94 309 1.0 5.0 0.00 0.00 0.00 52 1017.7
20260831212135 94 72 2.0 5.0 0.00 0.00 0.00 52 1017.6
20260831212022 94 144 2.0 5.0 0.00 0.00 0.00 51 1017.7
20260831211929 94 193 2.0 7.0 0.00 0.00 0.00 51 1017.7
20260831211904 94 78 2.0 7.0 0.00 0.00 0.00 51 1017.7
20260831211637 94 157 3.0 7.0 0.00 0.00 0.00 52 1017.7
20260831211525 94 156 3.0 7.0 0.00 0.00 0.00 53 1017.8
20260831211432 94 130 2.0 7.0 0.00 0.00 0.00 53 1017.7
20260831211324 94 33 3.0 7.0 0.00 0.00 0.00 53 1017.7
20260831211230 94 61 3.0 7.0 0.00 0.00 0.00 53 1017.8
20260831211158 94 63 2.0 7.0 0.00 0.00 0.00 55 1017.8
20260831211045 94 98 1.0 7.0 0.00 0.00 0.00 53 1017.9
20260831210933 94 5 2.0 7.0 0.00 0.00 0.00 54 1017.9
20260831210839 94 355 1.0 7.0 0.00 0.00 0.00 54 1017.9
20260831210730 93 285 1.0 7.0 0.00 0.00 0.00 55 1017.9
20260831210637 93 196 3.0 7.0 0.00 0.00 0.00 53 1017.8
20260831210525 93 198 3.0 6.0 0.00 0.00 0.00 53 1017.9
20260831210432 93 211 2.0 7.0 0.00 0.00 0.00 53 1018.0
20260831210403 93 267 1.0 8.0 0.00 0.00 0.00 54 1018.0
20260831210121 93 165 2.0 8.0 0.00 0.00 0.00 55 1018.0
20260831210029 93 121 2.0 8.0 0.00 0.00 0.00 56 1018.0
20260831205936 93 135 3.0 8.0 0.00 0.00 0.00 55 1018.0
20260831205843 93 80 3.0 8.0 0.00 0.00 0.00 56 1018.0
20260831205730 93 134 3.0 8.0 0.00 0.00 0.00 56 1018.0
20260831205622 93 128 3.0 8.0 0.00 0.00 0.00 55 1018.0
20260831205528 93 66 3.0 8.0 0.00 0.00 0.00 57 1018.0
20260831205436 93 118 3.0 6.0 0.00 0.00 0.00 57 1018.0
20260831205322 93 32 2.0 6.0 0.00 0.00 0.00 59 1018.0
20260831205230 93 5 1.0 6.0 0.00 0.00 0.00 57 1018.0
20260831205137 92 34 1.0 6.0 0.00 0.00 0.00 58 1018.1
20260831205030 92 34 2.0 6.0 0.00 0.00 0.00 58 1018.0
20260831204937 92 34 2.0 6.0 0.00 0.00 0.00 58 1018.1
20260831204907 92 34 1.0 6.0 0.00 0.00 0.00 58 1018.1
20260831204620 92 44 1.0 6.0 0.00 0.00 0.00 56 1018.2
20260831204532 92 44 1.0 6.0 0.00 0.00 0.00 58 1018.2
20260831204459 92 36 1.0 6.0 0.00 0.00 0.00 58 1018.2
20260831204325 92 42 2.0 6.0 0.00 0.00 0.00 57 1018.1
20260831204234 92 83 2.0 6.0 0.00 0.00 0.00 58 1018.3
20260831204120 92 75 3.0 6.0 0.00 0.00 0.00 57 1018.2
20260831204027 92 109 3.0 6.0 0.00 0.00 0.00 58 1018.2
20260831203935 92 99 3.0 7.0 0.00 0.00 0.00 57 1018.2
20260831203827 92 103 2.0 7.0 0.00 0.00 0.00 57 1018.3
20260831203734 92 117 2.0 7.0 0.00 0.00 0.00 56 1018.2
20260831203621 92 94 1.0 7.0 0.00 0.00 0.00 56 1018.3
20260831203529 92 122 2.0 7.0 0.00 0.00 0.00 56 1018.3
20260831203436 92 80 2.0 7.0 0.00 0.00 0.00 56 1018.3
20260831203411 93 71 2.0 7.0 0.00 0.00 0.00 55 1018.3
20260831203145 93 90 3.0 7.0 0.00 0.00 0.00 55 1018.3
20260831203031 93 166 2.0 7.0 0.00 0.00 0.00 57 1018.3
20260831202938 93 115 2.0 7.0 0.00 0.00 0.00 55 1018.3
20260831202826 93 108 4.0 7.0 0.00 0.00 0.00 56 1018.3
20260831202738 93 89 4.0 7.0 0.00 0.00 0.00 56 1018.3
20260831202626 94 121 2.0 6.0 0.00 0.00 0.00 56 1018.3
20260831202534 94 111 2.0 6.0 0.00 0.00 0.00 55 1018.4
20260831202501 94 52 3.0 6.0 0.00 0.00 0.00 55 1018.3
20260831202325 94 42 4.0 6.0 0.00 0.00 0.00 55 1018.3
20260831202232 94 33 4.0 6.0 0.00 0.00 0.00 55 1018.3
20260831202123 94 34 3.0 6.0 0.00 0.00 0.00 56 1018.4
20260831202050 94 35 2.0 6.0 0.00 0.00 0.00 56 1018.3